Time,TemperatureF,DewpointF,PressureIn,WindDirection,WindDirectionDegrees,WindSpeedMPH,WindSpeedGustMPH,Humidity,HourlyPrecipIn,Conditions,Clouds,dailyrainin,SoftwareType,DateUTC
2013-01-31 00:00:00,64.2,62.4,29.18,North,-999,-999.0,13.0,95,0.04,,,1.04,meteohub,2013-01-31 05:00:00,
2013-01-31 00:02:00,64.4,62.6,29.15,North,-999,-999.0,7.0,95,0.04,,,1.04,meteohub,2013-01-31 05:02:00,
2013-01-31 00:07:00,64.8,63.0,29.15,North,-999,-999.0,-999.0,95,0.04,,,0.00,meteohub,2013-01-31 05:07:00,
2013-01-31 00:12:00,64.9,62.8,29.15,North,-999,-999.0,-999.0,94,0.04,,,0.00,meteohub,2013-01-31 05:12:00,
2013-01-31 00:15:00,64.9,63.0,29.15,North,-999,-999.0,-999.0,94,0.04,,,0.00,meteohub,2013-01-31 05:15:00,
2013-01-31 00:17:00,64.9,63.0,29.15,North,-999,-999.0,-999.0,94,0.08,,,0.04,meteohub,2013-01-31 05:17:00,
2013-01-31 00:20:00,64.8,62.6,29.15,North,-999,-999.0,-999.0,93,0.08,,,0.04,meteohub,2013-01-31 05:20:00,
2013-01-31 00:22:00,64.8,62.6,29.15,North,-999,-999.0,-999.0,93,0.04,,,0.04,meteohub,2013-01-31 05:22:00,
2013-01-31 00:25:00,64.6,62.6,29.15,SW,230,11.0,-999.0,93,0.04,,,0.04,meteohub,2013-01-31 05:25:00,
2013-01-31 00:27:00,64.4,62.4,29.15,SW,230,6.0,11.0,93,0.04,,,0.04,meteohub,2013-01-31 05:27:00,
2013-01-31 00:30:00,64.4,62.4,29.15,SW,230,6.0,11.0,93,0.08,,,0.08,meteohub,2013-01-31 05:30:00,
2013-01-31 00:31:00,64.4,62.4,29.15,North,-999,-999.0,11.0,93,0.08,,,0.08,meteohub,2013-01-31 05:31:00,
2013-01-31 00:33:00,64.6,63.0,29.15,North,-999,-999.0,11.0,94,0.08,,,0.08,meteohub,2013-01-31 05:33:00,
2013-01-31 00:35:00,64.6,63.0,29.15,North,-999,-999.0,11.0,94,0.08,,,0.08,meteohub,2013-01-31 05:35:00,
2013-01-31 00:36:00,64.6,63.0,29.15,North,-999,-999.0,11.0,94,0.08,,,0.08,meteohub,2013-01-31 05:36:00,
2013-01-31 00:38:00,64.6,63.0,29.15,SW,230,8.0,11.0,94,0.08,,,0.08,meteohub,2013-01-31 05:38:00,
2013-01-31 00:40:00,64.8,63.0,29.15,SW,230,8.0,8.0,94,0.13,,,0.13,meteohub,2013-01-31 05:40:00,
2013-01-31 00:41:00,64.8,63.0,29.15,SW,230,8.0,8.0,94,0.13,,,0.13,meteohub,2013-01-31 05:41:00,
2013-01-31 00:44:00,64.8,63.1,29.15,SW,230,9.0,9.0,94,0.13,,,0.13,meteohub,2013-01-31 05:44:00,
2013-01-31 00:45:00,64.8,63.1,29.15,SW,230,9.0,9.0,94,0.17,,,0.17,meteohub,2013-01-31 05:45:00,
2013-01-31 00:46:00,64.8,63.1,29.15,SW,230,9.0,9.0,94,0.17,,,0.17,meteohub,2013-01-31 05:46:00,
2013-01-31 00:49:00,64.8,63.1,29.15,North,-999,-999.0,8.0,94,0.17,,,0.17,meteohub,2013-01-31 05:49:00,
2013-01-31 00:50:00,64.8,63.1,29.15,North,-999,-999.0,9.0,94,0.21,,,0.21,meteohub,2013-01-31 05:50:00,
2013-01-31 00:51:00,64.8,63.1,29.15,North,-999,-999.0,9.0,94,0.21,,,0.21,meteohub,2013-01-31 05:51:00,
2013-01-31 00:55:00,64.8,63.5,29.15,North,-999,-999.0,9.0,95,0.21,,,0.21,meteohub,2013-01-31 05:55:00,
2013-01-31 00:56:00,64.8,63.5,29.15,North,-999,-999.0,9.0,95,0.21,,,0.21,meteohub,2013-01-31 05:56:00,
2013-01-31 01:00:00,64.9,63.7,29.15,North,-999,-999.0,9.0,95,0.21,,,0.25,meteohub,2013-01-31 06:00:00,
2013-01-31 01:02:00,64.9,63.7,29.12,North,-999,-999.0,-999.0,95,0.25,,,0.25,meteohub,2013-01-31 06:02:00,
2013-01-31 01:05:00,64.9,63.7,29.12,North,-999,-999.0,-999.0,95,0.25,,,0.25,meteohub,2013-01-31 06:05:00,
2013-01-31 01:06:00,64.9,63.7,29.12,North,-999,-999.0,-999.0,95,0.25,,,0.25,meteohub,2013-01-31 06:06:00,
2013-01-31 01:07:00,64.9,63.7,29.12,North,-999,-999.0,-999.0,95,0.25,,,0.25,meteohub,2013-01-31 06:07:00,
2013-01-31 01:10:00,65.1,63.7,29.12,North,-999,-999.0,-999.0,95,0.25,,,0.25,meteohub,2013-01-31 06:10:00,
2013-01-31 01:12:00,65.1,63.7,29.12,North,-999,-999.0,-999.0,95,0.25,,,0.25,meteohub,2013-01-31 06:12:00,
2013-01-31 01:13:00,65.1,63.7,29.12,North,-999,-999.0,-999.0,95,0.25,,,0.25,meteohub,2013-01-31 06:13:00,
2013-01-31 01:15:00,64.9,63.7,29.12,SW,230,8.0,8.0,95,0.21,,,0.25,meteohub,2013-01-31 06:15:00,
2013-01-31 01:17:00,64.9,63.7,29.12,SW,230,8.0,8.0,95,0.21,,,0.25,meteohub,2013-01-31 06:17:00,
2013-01-31 01:18:00,64.9,63.7,29.12,SW,230,8.0,8.0,95,0.21,,,0.25,meteohub,2013-01-31 06:18:00,
2013-01-31 01:21:00,64.8,63.7,29.12,SW,230,31.0,31.0,95,0.21,,,0.25,meteohub,2013-01-31 06:21:00,
2013-01-31 01:22:00,64.2,63.1,29.12,SW,230,31.0,31.0,94,0.21,,,0.25,meteohub,2013-01-31 06:22:00,
2013-01-31 01:23:00,64.2,63.1,29.12,SW,230,31.0,31.0,94,0.21,,,0.25,meteohub,2013-01-31 06:23:00,
2013-01-31 01:26:00,64.2,62.6,29.12,North,-999,-999.0,31.0,93,0.21,,,0.29,meteohub,2013-01-31 06:26:00,
2013-01-31 01:28:00,64.0,62.4,29.12,North,-999,-999.0,31.0,92,0.21,,,0.29,meteohub,2013-01-31 06:28:00,
2013-01-31 01:31:00,64.0,62.1,29.12,North,-999,-999.0,31.0,91,0.21,,,0.29,meteohub,2013-01-31 06:31:00,
2013-01-31 01:33:00,63.9,61.9,29.18,WSW,252,26.0,31.0,91,0.21,,,0.29,meteohub,2013-01-31 06:33:00,
2013-01-31 01:37:00,63.9,61.5,29.18,SW,230,9.0,31.0,90,0.17,,,0.29,meteohub,2013-01-31 06:37:00,
2013-01-31 01:38:00,63.5,61.3,29.18,SW,230,9.0,31.0,90,0.17,,,0.29,meteohub,2013-01-31 06:38:00,
2013-01-31 01:42:00,63.3,61.2,29.18,SW,230,9.0,26.0,90,0.17,,,0.29,meteohub,2013-01-31 06:42:00,
2013-01-31 01:43:00,63.1,61.2,29.18,SW,230,9.0,26.0,90,0.17,,,0.29,meteohub,2013-01-31 06:43:00,
2013-01-31 01:44:00,63.1,61.0,29.18,SW,230,9.0,26.0,89,0.17,,,0.29,meteohub,2013-01-31 06:44:00,
2013-01-31 01:47:00,63.0,60.8,29.18,North,-999,-999.0,26.0,89,0.12,,,0.33,meteohub,2013-01-31 06:47:00,
2013-01-31 01:48:00,63.0,60.8,29.18,North,-999,-999.0,26.0,89,0.12,,,0.33,meteohub,2013-01-31 06:48:00,
2013-01-31 01:49:00,62.8,60.3,29.18,North,-999,-999.0,26.0,88,0.12,,,0.33,meteohub,2013-01-31 06:49:00,
2013-01-31 01:52:00,62.8,60.3,29.18,North,-999,-999.0,9.0,88,0.12,,,0.33,meteohub,2013-01-31 06:52:00,
2013-01-31 01:53:00,62.6,60.1,29.18,North,-999,-999.0,9.0,88,0.12,,,0.33,meteohub,2013-01-31 06:53:00,
2013-01-31 01:54:00,62.6,60.1,29.18,North,-999,-999.0,9.0,88,0.12,,,0.33,meteohub,2013-01-31 06:54:00,
2013-01-31 01:57:00,62.2,59.5,29.18,North,-999,-999.0,9.0,87,0.12,,,0.33,meteohub,2013-01-31 06:57:00,
2013-01-31 01:58:00,62.2,59.5,29.18,North,-999,-999.0,9.0,87,0.12,,,0.33,meteohub,2013-01-31 06:58:00,
2013-01-31 01:59:00,62.2,59.5,29.18,North,-999,-999.0,9.0,87,0.12,,,0.33,meteohub,2013-01-31 06:59:00,
2013-01-31 02:02:00,62.1,59.0,29.18,North,-999,-999.0,-999.0,86,0.08,,,0.33,meteohub,2013-01-31 07:02:00,
2013-01-31 02:04:00,62.1,58.8,29.18,North,-999,-999.0,-999.0,85,0.08,,,0.33,meteohub,2013-01-31 07:04:00,
2013-01-31 02:05:00,61.9,58.6,29.18,North,-999,-999.0,-999.0,85,0.08,,,0.33,meteohub,2013-01-31 07:05:00,
2013-01-31 02:07:00,61.9,58.6,29.18,SW,230,13.0,-999.0,85,0.08,,,0.33,meteohub,2013-01-31 07:07:00,
2013-01-31 02:09:00,61.7,58.1,29.18,SW,230,12.0,-999.0,84,0.08,,,0.33,meteohub,2013-01-31 07:09:00,
2013-01-31 02:10:00,61.7,58.1,29.18,SW,230,12.0,-999.0,84,0.08,,,0.33,meteohub,2013-01-31 07:10:00,
2013-01-31 02:13:00,61.7,58.1,29.18,SW,230,9.0,13.0,84,0.08,,,0.33,meteohub,2013-01-31 07:13:00,
2013-01-31 02:14:00,61.5,57.6,29.18,SW,230,9.0,13.0,83,0.08,,,0.33,meteohub,2013-01-31 07:14:00,
2013-01-31 02:15:00,61.5,57.6,29.18,North,-999,-999.0,13.0,83,0.08,,,0.33,meteohub,2013-01-31 07:15:00,
2013-01-31 02:18:00,61.5,57.0,29.18,North,-999,-999.0,13.0,82,0.13,,,0.37,meteohub,2013-01-31 07:18:00,
2013-01-31 02:19:00,61.5,57.0,29.18,North,-999,-999.0,13.0,82,0.13,,,0.37,meteohub,2013-01-31 07:19:00,
2013-01-31 02:20:00,61.5,56.7,29.18,North,-999,-999.0,13.0,81,0.13,,,0.37,meteohub,2013-01-31 07:20:00,
2013-01-31 02:23:00,61.5,56.1,29.18,North,-999,-999.0,13.0,80,0.08,,,0.37,meteohub,2013-01-31 07:23:00,
2013-01-31 02:24:00,61.5,55.8,29.18,WSW,252,8.0,13.0,79,0.08,,,0.37,meteohub,2013-01-31 07:24:00,
2013-01-31 02:25:00,61.5,55.8,29.18,SW,230,9.0,13.0,79,0.08,,,0.37,meteohub,2013-01-31 07:25:00,
2013-01-31 02:28:00,61.3,55.2,29.18,West,274,15.0,-999.0,78,0.08,,,0.37,meteohub,2013-01-31 07:28:00,
2013-01-31 02:30:00,61.3,55.2,29.18,SW,230,15.0,-999.0,78,0.08,,,0.37,meteohub,2013-01-31 07:30:00,
2013-01-31 02:33:00,61.3,54.5,29.18,SW,230,20.0,20.0,76,0.08,,,0.37,meteohub,2013-01-31 07:33:00,
2013-01-31 02:35:00,61.2,54.0,29.18,West,274,15.0,26.0,75,0.08,,,0.37,meteohub,2013-01-31 07:35:00,
2013-01-31 02:36:00,61.2,54.0,29.18,SE,140,9.0,26.0,75,0.08,,,0.37,meteohub,2013-01-31 07:36:00,
2013-01-31 02:38:00,61.2,54.0,29.18,SW,230,11.0,26.0,75,0.08,,,0.37,meteohub,2013-01-31 07:38:00,
2013-01-31 02:41:00,61.2,53.4,29.18,SW,230,11.0,26.0,74,0.08,,,0.37,meteohub,2013-01-31 07:41:00,
2013-01-31 02:44:00,61.2,53.1,29.18,SW,230,23.0,26.0,73,0.08,,,0.37,meteohub,2013-01-31 07:44:00,
2013-01-31 02:46:00,61.2,52.7,29.18,SW,230,22.0,26.0,72,0.04,,,0.37,meteohub,2013-01-31 07:46:00,
2013-01-31 02:49:00,61.0,52.2,29.15,SW,230,9.0,26.0,71,0.04,,,0.37,meteohub,2013-01-31 07:49:00,
2013-01-31 02:51:00,61.0,51.8,29.15,WSW,252,9.0,25.0,70,0.04,,,0.37,meteohub,2013-01-31 07:51:00,
2013-01-31 02:52:00,61.0,51.8,29.15,SW,230,15.0,25.0,70,0.04,,,0.37,meteohub,2013-01-31 07:52:00,
2013-01-31 02:54:00,60.8,51.6,29.15,SW,230,15.0,25.0,70,0.04,,,0.37,meteohub,2013-01-31 07:54:00,
2013-01-31 02:56:00,60.8,51.3,29.15,South,184,17.0,25.0,69,0.04,,,0.37,meteohub,2013-01-31 07:56:00,
2013-01-31 02:57:00,60.8,50.9,29.15,SSW,207,13.0,25.0,68,0.04,,,0.37,meteohub,2013-01-31 07:57:00,
2013-01-31 02:59:00,60.6,50.7,29.15,SW,230,11.0,25.0,68,0.04,,,0.37,meteohub,2013-01-31 07:59:00,
2013-01-31 03:01:00,60.6,50.4,29.15,SSW,207,8.0,25.0,67,0.04,,,0.37,meteohub,2013-01-31 08:01:00,
2013-01-31 03:02:00,60.6,50.4,29.15,South,184,8.0,25.0,67,0.04,,,0.37,meteohub,2013-01-31 08:02:00,
2013-01-31 03:03:00,60.6,50.4,29.15,SSW,207,13.0,25.0,67,0.04,,,0.37,meteohub,2013-01-31 08:03:00,
2013-01-31 03:05:00,60.4,50.4,29.15,SW,230,17.0,25.0,67,0.04,,,0.37,meteohub,2013-01-31 08:05:00,
2013-01-31 03:06:00,60.3,50.2,29.15,SW,230,10.0,25.0,67,0.04,,,0.37,meteohub,2013-01-31 08:06:00,
2013-01-31 03:07:00,60.3,50.2,29.15,SW,230,10.0,25.0,67,0.04,,,0.37,meteohub,2013-01-31 08:07:00,
2013-01-31 03:08:00,60.3,50.2,29.15,SW,230,9.0,25.0,67,0.04,,,0.37,meteohub,2013-01-31 08:08:00,
2013-01-31 03:10:00,60.1,49.5,29.15,SSW,207,15.0,26.0,66,0.00,,,0.37,meteohub,2013-01-31 08:10:00,
2013-01-31 03:12:00,60.1,49.5,29.15,SW,230,10.0,26.0,66,0.00,,,0.37,meteohub,2013-01-31 08:12:00,
2013-01-31 03:13:00,60.1,49.5,29.15,SSW,207,13.0,26.0,66,0.00,,,0.37,meteohub,2013-01-31 08:13:00,
2013-01-31 03:16:00,60.1,49.5,29.15,SW,230,15.0,26.0,66,0.00,,,0.37,meteohub,2013-01-31 08:16:00,
2013-01-31 03:17:00,60.1,50.0,29.12,SW,230,10.0,26.0,67,0.00,,,0.37,meteohub,2013-01-31 08:17:00,
2013-01-31 03:18:00,59.9,49.8,29.12,SW,230,11.0,26.0,67,0.00,,,0.37,meteohub,2013-01-31 08:18:00,
2013-01-31 03:21:00,59.9,49.8,29.12,SW,230,8.0,22.0,67,0.00,,,0.37,meteohub,2013-01-31 08:21:00,
2013-01-31 03:22:00,59.9,49.8,29.12,SW,230,13.0,22.0,67,0.00,,,0.37,meteohub,2013-01-31 08:22:00,
2013-01-31 03:23:00,59.9,50.2,29.12,SW,230,10.0,22.0,68,0.00,,,0.37,meteohub,2013-01-31 08:23:00,
2013-01-31 03:27:00,59.7,50.4,29.12,South,184,15.0,22.0,69,0.00,,,0.37,meteohub,2013-01-31 08:27:00,
2013-01-31 03:29:00,59.7,50.4,29.12,WSW,252,9.0,22.0,69,0.00,,,0.37,meteohub,2013-01-31 08:29:00,
2013-01-31 03:32:00,59.7,50.7,29.12,South,184,8.0,15.0,70,0.00,,,0.37,meteohub,2013-01-31 08:32:00,
2013-01-31 03:33:00,59.7,50.7,29.15,SSW,207,9.0,15.0,70,0.00,,,0.37,meteohub,2013-01-31 08:33:00,
2013-01-31 03:34:00,59.7,50.7,29.15,SW,230,16.0,16.0,70,0.00,,,0.37,meteohub,2013-01-31 08:34:00,
2013-01-31 03:37:00,59.7,51.1,29.15,SW,230,11.0,15.0,71,0.00,,,0.37,meteohub,2013-01-31 08:37:00,
2013-01-31 03:38:00,59.9,51.1,29.15,SW,230,8.0,15.0,71,0.00,,,0.37,meteohub,2013-01-31 08:38:00,
2013-01-31 03:39:00,59.9,51.1,29.15,South,184,19.0,19.0,71,0.00,,,0.37,meteohub,2013-01-31 08:39:00,
2013-01-31 03:42:00,59.9,51.1,29.15,SW,230,19.0,25.0,71,0.00,,,0.37,meteohub,2013-01-31 08:42:00,
2013-01-31 03:43:00,59.9,51.1,29.15,West,274,18.0,25.0,71,0.00,,,0.37,meteohub,2013-01-31 08:43:00,
2013-01-31 03:44:00,59.9,51.1,29.15,SSW,207,13.0,25.0,71,0.00,,,0.37,meteohub,2013-01-31 08:44:00,
2013-01-31 03:47:00,59.9,51.1,29.15,SW,230,8.0,25.0,71,0.00,,,0.37,meteohub,2013-01-31 08:47:00,
2013-01-31 03:48:00,59.9,51.1,29.15,WSW,252,6.0,25.0,71,0.00,,,0.37,meteohub,2013-01-31 08:48:00,
2013-01-31 03:49:00,59.9,51.1,29.15,SSW,207,13.0,25.0,71,0.00,,,0.37,meteohub,2013-01-31 08:49:00,
2013-01-31 03:52:00,59.9,50.5,29.15,WSW,252,11.0,25.0,70,0.00,,,0.37,meteohub,2013-01-31 08:52:00,
2013-01-31 03:53:00,59.9,50.5,29.15,SW,230,13.0,25.0,70,0.00,,,0.37,meteohub,2013-01-31 08:53:00,
2013-01-31 03:54:00,59.9,50.5,29.15,SW,230,15.0,25.0,70,0.00,,,0.37,meteohub,2013-01-31 08:54:00,
2013-01-31 03:57:00,59.9,50.5,29.15,WSW,252,13.0,24.0,70,0.00,,,0.37,meteohub,2013-01-31 08:57:00,
2013-01-31 03:59:00,59.9,50.5,29.15,SW,230,10.0,24.0,70,0.00,,,0.37,meteohub,2013-01-31 08:59:00,
2013-01-31 04:02:00,59.7,50.5,29.18,SW,230,12.0,20.0,70,0.00,,,0.37,meteohub,2013-01-31 09:02:00,
2013-01-31 04:04:00,59.7,50.5,29.18,SSW,207,9.0,20.0,70,0.00,,,0.37,meteohub,2013-01-31 09:04:00,
2013-01-31 04:07:00,59.7,50.2,29.18,SW,230,14.0,18.0,69,0.00,,,0.37,meteohub,2013-01-31 09:07:00,
2013-01-31 04:09:00,59.7,50.2,29.18,WSW,252,19.0,19.0,69,0.00,,,0.37,meteohub,2013-01-31 09:09:00,
2013-01-31 04:10:00,59.7,50.2,29.18,WSW,252,13.0,18.0,69,0.00,,,0.37,meteohub,2013-01-31 09:10:00,
2013-01-31 04:12:00,59.7,50.2,29.18,SW,230,10.0,22.0,69,0.00,,,0.37,meteohub,2013-01-31 09:12:00,
2013-01-31 04:14:00,59.7,50.2,29.18,SSW,207,10.0,22.0,69,0.00,,,0.37,meteohub,2013-01-31 09:14:00,
2013-01-31 04:15:00,59.7,50.2,29.18,SW,230,11.0,22.0,69,0.00,,,0.37,meteohub,2013-01-31 09:15:00,
2013-01-31 04:19:00,59.7,50.2,29.18,NNW,342,16.0,22.0,69,0.00,,,0.37,meteohub,2013-01-31 09:19:00,
2013-01-31 04:20:00,59.7,50.2,29.18,WNW,297,22.0,22.0,69,0.00,,,0.37,meteohub,2013-01-31 09:20:00,
2013-01-31 04:24:00,58.3,47.1,29.18,West,274,16.0,22.0,63,0.00,,,0.37,meteohub,2013-01-31 09:24:00,
2013-01-31 04:25:00,57.9,47.1,29.18,NW,320,19.0,22.0,63,0.00,,,0.37,meteohub,2013-01-31 09:25:00,
2013-01-31 04:29:00,56.8,44.2,29.18,West,274,11.0,24.0,58,0.00,,,0.37,meteohub,2013-01-31 09:29:00,
2013-01-31 04:30:00,56.7,44.2,29.18,West,274,6.0,24.0,58,0.00,,,0.37,meteohub,2013-01-31 09:30:00,
2013-01-31 04:34:00,56.1,43.7,29.24,NW,320,23.0,24.0,58,0.00,,,0.37,meteohub,2013-01-31 09:34:00,
2013-01-31 04:35:00,56.1,43.3,29.24,WNW,297,24.0,24.0,57,0.00,,,0.37,meteohub,2013-01-31 09:35:00,
2013-01-31 04:40:00,55.6,41.4,29.24,West,274,10.0,24.0,54,0.00,,,0.37,meteohub,2013-01-31 09:40:00,
2013-01-31 04:41:00,55.4,41.4,29.24,West,274,10.0,24.0,54,0.00,,,0.37,meteohub,2013-01-31 09:41:00,
2013-01-31 04:45:00,55.2,41.2,29.24,SW,230,17.0,24.0,54,0.00,,,0.37,meteohub,2013-01-31 09:45:00,
2013-01-31 04:46:00,55.2,41.2,29.24,WSW,252,15.0,24.0,54,0.00,,,0.37,meteohub,2013-01-31 09:46:00,
2013-01-31 04:47:00,55.2,40.6,29.24,West,274,9.0,24.0,53,0.00,,,0.37,meteohub,2013-01-31 09:47:00,
2013-01-31 04:51:00,55.0,39.4,29.24,WNW,297,12.0,24.0,51,0.00,,,0.37,meteohub,2013-01-31 09:51:00,
2013-01-31 04:52:00,54.9,38.7,29.24,WSW,252,11.0,24.0,50,0.00,,,0.37,meteohub,2013-01-31 09:52:00,
2013-01-31 04:53:00,54.9,38.7,29.24,SW,230,12.0,24.0,50,0.00,,,0.37,meteohub,2013-01-31 09:53:00,
2013-01-31 04:56:00,54.7,38.5,29.24,SW,230,19.0,24.0,50,0.00,,,0.37,meteohub,2013-01-31 09:56:00,
2013-01-31 04:57:00,54.5,37.9,29.24,WNW,297,15.0,24.0,49,0.00,,,0.37,meteohub,2013-01-31 09:57:00,
2013-01-31 04:58:00,54.5,37.9,29.24,West,274,11.0,24.0,49,0.00,,,0.37,meteohub,2013-01-31 09:58:00,
2013-01-31 04:59:00,54.5,37.9,29.24,SW,230,14.0,24.0,49,0.00,,,0.37,meteohub,2013-01-31 09:59:00,
2013-01-31 05:01:00,54.3,37.8,29.24,West,274,15.0,24.0,49,0.00,,,0.37,meteohub,2013-01-31 10:01:00,
2013-01-31 05:02:00,54.3,37.8,29.27,NW,320,13.0,25.0,49,0.00,,,0.37,meteohub,2013-01-31 10:02:00,
2013-01-31 05:03:00,54.3,37.8,29.27,WSW,252,8.0,25.0,49,0.00,,,0.37,meteohub,2013-01-31 10:03:00,
2013-01-31 05:04:00,54.1,37.6,29.27,WSW,252,8.0,25.0,49,0.00,,,0.37,meteohub,2013-01-31 10:04:00,
2013-01-31 05:06:00,54.0,37.6,29.27,West,274,8.0,25.0,49,0.00,,,0.37,meteohub,2013-01-31 10:06:00,
2013-01-31 05:08:00,54.0,37.4,29.27,West,274,10.0,25.0,49,0.00,,,0.37,meteohub,2013-01-31 10:08:00,
2013-01-31 05:09:00,53.8,37.4,29.27,NW,320,12.0,25.0,49,0.00,,,0.37,meteohub,2013-01-31 10:09:00,
2013-01-31 05:11:00,53.6,37.8,29.27,SW,230,8.0,25.0,50,0.00,,,0.37,meteohub,2013-01-31 10:11:00,
2013-01-31 05:13:00,53.4,37.6,29.27,WNW,297,9.0,25.0,50,0.00,,,0.37,meteohub,2013-01-31 10:13:00,
2013-01-31 05:14:00,53.4,37.6,29.27,SW,230,6.0,25.0,50,0.00,,,0.37,meteohub,2013-01-31 10:14:00,
2013-01-31 05:15:00,53.4,37.6,29.27,North,4,17.0,25.0,50,0.00,,,0.37,meteohub,2013-01-31 10:15:00,
2013-01-31 05:16:00,53.4,37.6,29.27,NW,320,9.0,19.0,50,0.00,,,0.37,meteohub,2013-01-31 10:16:00,
2013-01-31 05:18:00,53.4,37.4,29.30,WSW,252,9.0,19.0,50,0.00,,,0.37,meteohub,2013-01-31 10:18:00,
2013-01-31 05:19:00,53.4,37.4,29.30,NW,320,13.0,19.0,50,0.00,,,0.37,meteohub,2013-01-31 10:19:00,
2013-01-31 05:20:00,53.4,37.4,29.30,West,274,11.0,19.0,50,0.00,,,0.37,meteohub,2013-01-31 10:20:00,
2013-01-31 05:21:00,53.2,37.4,29.30,SSW,207,14.0,20.0,50,0.00,,,0.37,meteohub,2013-01-31 10:21:00,
2013-01-31 05:23:00,53.2,37.2,29.30,WSW,252,12.0,20.0,50,0.00,,,0.37,meteohub,2013-01-31 10:23:00,
2013-01-31 05:24:00,53.2,37.2,29.30,WNW,297,10.0,20.0,50,0.00,,,0.37,meteohub,2013-01-31 10:24:00,
2013-01-31 05:25:00,53.1,37.0,29.30,West,274,12.0,20.0,50,0.00,,,0.37,meteohub,2013-01-31 10:25:00,
2013-01-31 05:27:00,53.1,36.5,29.30,WSW,252,17.0,20.0,49,0.00,,,0.37,meteohub,2013-01-31 10:27:00,
2013-01-31 05:28:00,53.1,36.5,29.30,NW,320,13.0,20.0,49,0.00,,,0.37,meteohub,2013-01-31 10:28:00,
2013-01-31 05:30:00,53.1,36.9,29.30,WNW,297,16.0,20.0,50,0.00,,,0.37,meteohub,2013-01-31 10:30:00,
2013-01-31 05:31:00,52.9,36.9,29.30,West,274,11.0,17.0,50,0.00,,,0.37,meteohub,2013-01-31 10:31:00,
2013-01-31 05:33:00,52.9,36.7,29.33,West,274,13.0,17.0,50,0.00,,,0.37,meteohub,2013-01-31 10:33:00,
2013-01-31 05:34:00,52.9,36.1,29.33,NNW,342,15.0,17.0,49,0.00,,,0.37,meteohub,2013-01-31 10:34:00,
2013-01-31 05:35:00,52.9,36.1,29.33,West,274,11.0,17.0,49,0.00,,,0.37,meteohub,2013-01-31 10:35:00,
2013-01-31 05:37:00,52.9,36.1,29.33,SW,230,13.0,17.0,49,0.00,,,0.37,meteohub,2013-01-31 10:37:00,
2013-01-31 05:38:00,52.7,36.1,29.33,West,274,18.0,18.0,49,0.00,,,0.37,meteohub,2013-01-31 10:38:00,
2013-01-31 05:39:00,52.7,36.1,29.33,NW,320,17.0,17.0,49,0.00,,,0.37,meteohub,2013-01-31 10:39:00,
2013-01-31 05:40:00,52.7,36.1,29.33,West,274,11.0,17.0,49,0.00,,,0.37,meteohub,2013-01-31 10:40:00,
2013-01-31 05:42:00,52.5,35.4,29.33,SSW,207,14.0,19.0,48,0.00,,,0.37,meteohub,2013-01-31 10:42:00,
2013-01-31 05:44:00,52.3,35.2,29.33,West,274,10.0,19.0,48,0.00,,,0.37,meteohub,2013-01-31 10:44:00,
2013-01-31 05:45:00,52.3,35.8,29.33,NNW,342,11.0,19.0,49,0.00,,,0.37,meteohub,2013-01-31 10:45:00,
2013-01-31 05:47:00,52.3,35.8,29.33,SW,230,11.0,19.0,49,0.00,,,0.37,meteohub,2013-01-31 10:47:00,
2013-01-31 05:49:00,52.3,35.2,29.33,West,274,18.0,19.0,48,0.00,,,0.37,meteohub,2013-01-31 10:49:00,
2013-01-31 05:50:00,52.2,35.1,29.33,NW,320,16.0,24.0,48,0.00,,,0.37,meteohub,2013-01-31 10:50:00,
2013-01-31 05:52:00,52.2,35.1,29.33,SW,230,11.0,24.0,48,0.00,,,0.37,meteohub,2013-01-31 10:52:00,
2013-01-31 05:54:00,52.2,35.1,29.33,SW,230,7.0,24.0,48,0.00,,,0.37,meteohub,2013-01-31 10:54:00,
2013-01-31 05:55:00,52.0,34.9,29.33,West,274,13.0,24.0,48,0.00,,,0.37,meteohub,2013-01-31 10:55:00,
2013-01-31 05:56:00,52.0,34.3,29.33,West,274,17.0,24.0,47,0.00,,,0.37,meteohub,2013-01-31 10:56:00,
2013-01-31 05:58:00,51.8,34.2,29.33,NW,320,11.0,24.0,47,0.00,,,0.37,meteohub,2013-01-31 10:58:00,
2013-01-31 05:59:00,51.8,34.2,29.33,NW,320,11.0,24.0,47,0.00,,,0.37,meteohub,2013-01-31 10:59:00,
2013-01-31 06:00:00,51.8,34.2,29.33,SW,230,8.0,24.0,47,0.00,,,0.37,meteohub,2013-01-31 11:00:00,
2013-01-31 06:01:00,51.8,34.2,29.33,WNW,297,9.0,24.0,47,0.00,,,0.37,meteohub,2013-01-31 11:01:00,
2013-01-31 06:03:00,51.8,34.7,29.36,NW,320,6.0,24.0,48,0.00,,,0.37,meteohub,2013-01-31 11:03:00,
2013-01-31 06:04:00,51.6,34.5,29.36,NW,320,9.0,24.0,48,0.00,,,0.37,meteohub,2013-01-31 11:04:00,
2013-01-31 06:05:00,51.6,34.5,29.36,SSW,207,11.0,22.0,48,0.00,,,0.37,meteohub,2013-01-31 11:05:00,
2013-01-31 06:06:00,51.6,34.5,29.36,West,274,11.0,22.0,48,0.00,,,0.37,meteohub,2013-01-31 11:06:00,
2013-01-31 06:08:00,51.6,34.0,29.36,West,274,7.0,22.0,47,0.00,,,0.37,meteohub,2013-01-31 11:08:00,
2013-01-31 06:10:00,51.6,34.5,29.36,SW,230,8.0,22.0,48,0.00,,,0.37,meteohub,2013-01-31 11:10:00,
2013-01-31 06:11:00,51.6,34.5,29.36,WSW,252,9.0,22.0,48,0.00,,,0.37,meteohub,2013-01-31 11:11:00,
2013-01-31 06:14:00,51.4,34.3,29.36,WNW,297,13.0,22.0,48,0.00,,,0.37,meteohub,2013-01-31 11:14:00,
2013-01-31 06:15:00,51.4,34.3,29.36,SW,230,6.0,22.0,48,0.00,,,0.37,meteohub,2013-01-31 11:15:00,
2013-01-31 06:16:00,51.4,34.3,29.36,SE,140,10.0,18.0,48,0.00,,,0.37,meteohub,2013-01-31 11:16:00,
2013-01-31 06:19:00,51.3,34.2,29.39,West,274,12.0,18.0,48,0.00,,,0.37,meteohub,2013-01-31 11:19:00,
2013-01-31 06:20:00,51.3,34.2,29.39,NW,320,13.0,17.0,48,0.00,,,0.37,meteohub,2013-01-31 11:20:00,
2013-01-31 06:22:00,51.1,34.0,29.39,West,274,10.0,17.0,48,0.00,,,0.37,meteohub,2013-01-31 11:22:00,
2013-01-31 06:24:00,51.1,34.0,29.39,NNW,342,11.0,17.0,48,0.00,,,0.37,meteohub,2013-01-31 11:24:00,
2013-01-31 06:26:00,51.1,34.0,29.39,West,274,9.0,17.0,48,0.00,,,0.37,meteohub,2013-01-31 11:26:00,
2013-01-31 06:27:00,51.1,34.0,29.39,WNW,297,5.0,17.0,48,0.00,,,0.37,meteohub,2013-01-31 11:27:00,
2013-01-31 06:30:00,50.9,34.0,29.39,West,274,10.0,17.0,48,0.00,,,0.37,meteohub,2013-01-31 11:30:00,
2013-01-31 06:32:00,50.9,34.3,29.39,NW,320,9.0,17.0,49,0.00,,,0.37,meteohub,2013-01-31 11:32:00,
2013-01-31 06:33:00,50.7,34.3,29.39,NW,320,9.0,17.0,49,0.00,,,0.37,meteohub,2013-01-31 11:33:00,
2013-01-31 06:35:00,50.7,33.8,29.39,West,274,6.0,17.0,48,0.00,,,0.37,meteohub,2013-01-31 11:35:00,
2013-01-31 06:37:00,50.7,34.3,29.39,WSW,252,10.0,17.0,49,0.00,,,0.37,meteohub,2013-01-31 11:37:00,
2013-01-31 06:38:00,50.7,33.8,29.39,NNW,342,13.0,17.0,48,0.00,,,0.37,meteohub,2013-01-31 11:38:00,
2013-01-31 06:40:00,50.7,33.8,29.39,NNW,342,6.0,18.0,48,0.00,,,0.37,meteohub,2013-01-31 11:40:00,
2013-01-31 06:42:00,50.7,33.8,29.39,South,184,5.0,18.0,48,0.00,,,0.37,meteohub,2013-01-31 11:42:00,
2013-01-31 06:43:00,50.7,33.8,29.39,West,274,11.0,18.0,48,0.00,,,0.37,meteohub,2013-01-31 11:43:00,
2013-01-31 06:46:00,50.5,33.6,29.39,WNW,297,6.0,18.0,48,0.00,,,0.37,meteohub,2013-01-31 11:46:00,
2013-01-31 06:47:00,50.5,33.6,29.42,West,274,11.0,18.0,48,0.00,,,0.37,meteohub,2013-01-31 11:47:00,
2013-01-31 06:48:00,50.4,33.6,29.42,WNW,297,8.0,18.0,48,0.00,,,0.37,meteohub,2013-01-31 11:48:00,
2013-01-31 06:51:00,50.2,32.9,29.42,SW,230,17.0,18.0,47,0.00,,,0.37,meteohub,2013-01-31 11:51:00,
2013-01-31 06:53:00,50.0,32.7,29.42,West,274,8.0,18.0,47,0.00,,,0.37,meteohub,2013-01-31 11:53:00,
2013-01-31 06:56:00,49.8,32.0,29.42,WNW,297,17.0,23.0,46,0.00,,,0.37,meteohub,2013-01-31 11:56:00,
2013-01-31 06:58:00,49.6,31.8,29.42,West,274,16.0,23.0,46,0.00,,,0.37,meteohub,2013-01-31 11:58:00,
2013-01-31 06:59:00,49.6,31.8,29.42,SW,230,13.0,23.0,46,0.00,,,0.37,meteohub,2013-01-31 11:59:00,
2013-01-31 07:01:00,49.3,31.6,29.42,WSW,252,12.0,23.0,46,0.00,,,0.37,meteohub,2013-01-31 12:01:00,
2013-01-31 07:03:00,49.3,31.5,29.45,West,274,8.0,23.0,46,0.00,,,0.37,meteohub,2013-01-31 12:03:00,
2013-01-31 07:04:00,49.3,31.5,29.45,WNW,297,11.0,23.0,46,0.00,,,0.37,meteohub,2013-01-31 12:04:00,
2013-01-31 07:06:00,49.1,31.5,29.45,WSW,252,9.0,23.0,46,0.00,,,0.37,meteohub,2013-01-31 12:06:00,
2013-01-31 07:08:00,48.9,30.7,29.45,SW,230,9.0,23.0,45,0.00,,,0.37,meteohub,2013-01-31 12:08:00,
2013-01-31 07:09:00,48.9,30.7,29.45,NW,320,15.0,23.0,45,0.00,,,0.37,meteohub,2013-01-31 12:09:00,
2013-01-31 07:11:00,48.7,30.6,29.45,West,274,16.0,23.0,45,0.00,,,0.37,meteohub,2013-01-31 12:11:00,
2013-01-31 07:14:00,48.6,29.8,29.45,SSW,207,17.0,23.0,44,0.00,,,0.37,meteohub,2013-01-31 12:14:00,
2013-01-31 07:17:00,48.4,29.1,29.45,WNW,297,23.0,26.0,43,0.00,,,0.37,meteohub,2013-01-31 12:17:00,
2013-01-31 07:19:00,48.4,29.1,29.45,West,274,6.0,26.0,43,0.00,,,0.37,meteohub,2013-01-31 12:19:00,
2013-01-31 07:20:00,48.4,29.1,29.45,West,274,11.0,26.0,43,0.00,,,0.37,meteohub,2013-01-31 12:20:00,
2013-01-31 07:22:00,48.2,28.9,29.45,NW,320,9.0,26.0,43,0.00,,,0.37,meteohub,2013-01-31 12:22:00,
2013-01-31 07:24:00,48.2,28.9,29.45,WSW,252,11.0,26.0,43,0.00,,,0.37,meteohub,2013-01-31 12:24:00,
2013-01-31 07:25:00,48.2,28.9,29.45,SW,230,4.0,26.0,43,0.00,,,0.37,meteohub,2013-01-31 12:25:00,
2013-01-31 07:26:00,48.0,28.8,29.45,West,274,6.0,26.0,43,0.00,,,0.37,meteohub,2013-01-31 12:26:00,
2013-01-31 07:28:00,48.0,28.8,29.45,West,274,10.0,26.0,43,0.00,,,0.37,meteohub,2013-01-31 12:28:00,
2013-01-31 07:29:00,48.0,28.8,29.45,WSW,252,13.0,26.0,43,0.00,,,0.37,meteohub,2013-01-31 12:29:00,
2013-01-31 07:30:00,47.8,28.8,29.45,WSW,252,10.0,26.0,43,0.00,,,0.37,meteohub,2013-01-31 12:30:00,
2013-01-31 07:31:00,47.8,28.6,29.45,SW,230,8.0,23.0,43,0.00,,,0.37,meteohub,2013-01-31 12:31:00,
2013-01-31 07:33:00,47.8,28.6,29.48,SW,230,8.0,23.0,43,0.00,,,0.37,meteohub,2013-01-31 12:33:00,
2013-01-31 07:35:00,47.7,27.9,29.48,SSW,207,14.0,15.0,42,0.00,,,0.37,meteohub,2013-01-31 12:35:00,
2013-01-31 07:36:00,47.7,27.9,29.48,South,184,8.0,15.0,42,0.00,,,0.37,meteohub,2013-01-31 12:36:00,
2013-01-31 07:38:00,47.7,28.4,29.48,NW,320,8.0,15.0,43,0.00,,,0.37,meteohub,2013-01-31 12:38:00,
2013-01-31 07:40:00,47.5,28.2,29.48,West,274,22.0,22.0,43,0.00,,,0.37,meteohub,2013-01-31 12:40:00,
2013-01-31 07:41:00,47.5,28.2,29.48,West,274,22.0,22.0,43,0.00,,,0.37,meteohub,2013-01-31 12:41:00,
2013-01-31 07:42:00,47.7,28.2,29.48,NNW,342,13.0,19.0,43,0.00,,,0.37,meteohub,2013-01-31 12:42:00,
2013-01-31 07:43:00,47.7,28.2,29.48,WSW,252,13.0,19.0,43,0.00,,,0.37,meteohub,2013-01-31 12:43:00,
2013-01-31 07:46:00,47.7,28.6,29.48,SW,230,17.0,23.0,44,0.00,,,0.37,meteohub,2013-01-31 12:46:00,
2013-01-31 07:47:00,47.5,28.0,29.48,SW,230,11.0,23.0,43,0.00,,,0.37,meteohub,2013-01-31 12:47:00,
2013-01-31 07:48:00,47.5,28.0,29.48,SW,230,18.0,23.0,43,0.00,,,0.37,meteohub,2013-01-31 12:48:00,
2013-01-31 07:51:00,47.5,28.6,29.48,West,274,15.0,23.0,44,0.00,,,0.37,meteohub,2013-01-31 12:51:00,
2013-01-31 07:52:00,47.5,29.1,29.48,NNW,342,8.0,23.0,45,0.00,,,0.37,meteohub,2013-01-31 12:52:00,
2013-01-31 07:53:00,47.5,29.1,29.48,WSW,252,5.0,23.0,45,0.00,,,0.37,meteohub,2013-01-31 12:53:00,
2013-01-31 07:56:00,47.5,29.3,29.48,WNW,297,11.0,23.0,45,0.00,,,0.37,meteohub,2013-01-31 12:56:00,
2013-01-31 07:58:00,47.5,29.3,29.48,West,274,7.0,23.0,45,0.00,,,0.37,meteohub,2013-01-31 12:58:00,
2013-01-31 08:01:00,47.3,29.1,29.51,West,274,23.0,23.0,45,0.00,,,0.37,meteohub,2013-01-31 13:01:00,
2013-01-31 08:02:00,47.3,29.1,29.51,West,274,9.0,23.0,45,0.00,,,0.37,meteohub,2013-01-31 13:02:00,
2013-01-31 08:03:00,47.3,28.9,29.51,WNW,297,15.0,23.0,45,0.00,,,0.37,meteohub,2013-01-31 13:03:00,
2013-01-31 08:07:00,47.3,28.8,29.51,West,274,10.0,23.0,45,0.00,,,0.37,meteohub,2013-01-31 13:07:00,
2013-01-31 08:08:00,47.3,28.8,29.51,WSW,252,6.0,23.0,45,0.00,,,0.37,meteohub,2013-01-31 13:08:00,
2013-01-31 08:12:00,47.1,28.8,29.51,SW,230,12.0,23.0,45,0.00,,,0.37,meteohub,2013-01-31 13:12:00,
2013-01-31 08:13:00,47.1,28.8,29.51,NW,320,15.0,23.0,45,0.00,,,0.37,meteohub,2013-01-31 13:13:00,
2013-01-31 08:14:00,46.9,28.8,29.51,West,274,11.0,23.0,45,0.00,,,0.37,meteohub,2013-01-31 13:14:00,
2013-01-31 08:17:00,46.9,28.0,29.51,West,274,15.0,23.0,44,0.00,,,0.37,meteohub,2013-01-31 13:17:00,
2013-01-31 08:19:00,46.9,28.0,29.51,West,274,6.0,23.0,44,0.00,,,0.37,meteohub,2013-01-31 13:19:00,
2013-01-31 08:20:00,46.8,28.0,29.51,SW,230,6.0,23.0,44,0.00,,,0.37,meteohub,2013-01-31 13:20:00,
2013-01-31 08:22:00,46.6,28.0,29.51,West,274,5.0,20.0,44,0.00,,,0.37,meteohub,2013-01-31 13:22:00,
2013-01-31 08:24:00,46.6,28.0,29.51,SW,230,6.0,20.0,44,0.00,,,0.37,meteohub,2013-01-31 13:24:00,
2013-01-31 08:25:00,46.6,28.0,29.51,WSW,252,2.0,20.0,44,0.00,,,0.37,meteohub,2013-01-31 13:25:00,
2013-01-31 08:27:00,46.6,28.6,29.51,West,274,4.0,19.0,45,0.00,,,0.37,meteohub,2013-01-31 13:27:00,
2013-01-31 08:29:00,46.4,28.6,29.51,WSW,252,10.0,19.0,45,0.00,,,0.37,meteohub,2013-01-31 13:29:00,
2013-01-31 08:30:00,46.4,28.6,29.51,WSW,252,6.0,19.0,45,0.00,,,0.37,meteohub,2013-01-31 13:30:00,
2013-01-31 08:32:00,46.4,28.6,29.54,West,274,12.0,15.0,45,0.00,,,0.37,meteohub,2013-01-31 13:32:00,
2013-01-31 08:34:00,46.4,28.6,29.54,NW,320,15.0,15.0,45,0.00,,,0.37,meteohub,2013-01-31 13:34:00,
2013-01-31 08:35:00,46.2,28.4,29.54,WSW,252,13.0,15.0,45,0.00,,,0.37,meteohub,2013-01-31 13:35:00,
2013-01-31 08:36:00,46.2,28.4,29.54,NW,320,10.0,15.0,45,0.00,,,0.37,meteohub,2013-01-31 13:36:00,
2013-01-31 08:37:00,46.2,27.9,29.54,SSW,207,7.0,15.0,44,0.00,,,0.37,meteohub,2013-01-31 13:37:00,
2013-01-31 08:39:00,46.2,27.9,29.54,West,274,11.0,15.0,44,0.00,,,0.37,meteohub,2013-01-31 13:39:00,
2013-01-31 08:41:00,46.2,27.3,29.54,WSW,252,7.0,16.0,43,0.00,,,0.37,meteohub,2013-01-31 13:41:00,
2013-01-31 08:43:00,46.2,27.9,29.54,West,274,9.0,16.0,44,0.00,,,0.37,meteohub,2013-01-31 13:43:00,
2013-01-31 08:44:00,46.4,27.9,29.54,West,274,11.0,16.0,44,0.00,,,0.37,meteohub,2013-01-31 13:44:00,
2013-01-31 08:46:00,46.4,27.3,29.54,SW,230,11.0,16.0,43,0.00,,,0.37,meteohub,2013-01-31 13:46:00,
2013-01-31 08:48:00,46.2,27.3,29.54,SW,230,9.0,16.0,43,0.00,,,0.37,meteohub,2013-01-31 13:48:00,
2013-01-31 08:50:00,46.4,27.3,29.54,SW,230,13.0,16.0,43,0.00,,,0.37,meteohub,2013-01-31 13:50:00,
2013-01-31 08:51:00,46.4,27.3,29.54,West,274,17.0,17.0,43,0.00,,,0.37,meteohub,2013-01-31 13:51:00,
2013-01-31 08:52:00,46.6,27.3,29.54,WSW,252,11.0,17.0,43,0.00,,,0.37,meteohub,2013-01-31 13:52:00,
2013-01-31 08:53:00,46.4,26.6,29.54,WNW,297,17.0,17.0,42,0.00,,,0.37,meteohub,2013-01-31 13:53:00,
2013-01-31 08:55:00,46.2,26.4,29.54,NW,320,16.0,17.0,42,0.00,,,0.37,meteohub,2013-01-31 13:55:00,
2013-01-31 08:56:00,46.2,26.4,29.54,WSW,252,11.0,17.0,42,0.00,,,0.37,meteohub,2013-01-31 13:56:00,
2013-01-31 08:57:00,46.4,26.4,29.54,WSW,252,11.0,17.0,42,0.00,,,0.37,meteohub,2013-01-31 13:57:00,
2013-01-31 08:59:00,46.6,26.4,29.54,SW,230,8.0,17.0,42,0.00,,,0.37,meteohub,2013-01-31 13:59:00,
2013-01-31 09:01:00,46.6,26.4,29.54,West,274,15.0,20.0,42,0.00,,,0.37,meteohub,2013-01-31 14:01:00,
2013-01-31 09:02:00,46.6,26.4,29.57,North,4,19.0,20.0,42,0.00,,,0.37,meteohub,2013-01-31 14:02:00,
2013-01-31 09:04:00,46.4,25.7,29.57,West,274,8.0,20.0,41,0.00,,,0.37,meteohub,2013-01-31 14:04:00,
2013-01-31 09:06:00,46.6,25.9,29.57,West,274,16.0,20.0,41,0.00,,,0.37,meteohub,2013-01-31 14:06:00,
2013-01-31 09:07:00,46.6,25.9,29.57,SW,230,15.0,20.0,41,0.00,,,0.37,meteohub,2013-01-31 14:07:00,
2013-01-31 09:08:00,46.6,25.9,29.57,West,274,11.0,20.0,41,0.00,,,0.37,meteohub,2013-01-31 14:08:00,
2013-01-31 09:09:00,46.4,25.9,29.57,WSW,252,17.0,20.0,41,0.00,,,0.37,meteohub,2013-01-31 14:09:00,
2013-01-31 09:11:00,46.4,25.9,29.57,NNW,342,23.0,23.0,41,0.00,,,0.37,meteohub,2013-01-31 14:11:00,
2013-01-31 09:12:00,46.4,25.9,29.57,NNW,342,23.0,23.0,41,0.00,,,0.37,meteohub,2013-01-31 14:12:00,
2013-01-31 09:13:00,46.4,26.1,29.57,WNW,297,8.0,20.0,41,0.00,,,0.37,meteohub,2013-01-31 14:13:00,
2013-01-31 09:15:00,46.8,26.6,29.57,NW,320,12.0,20.0,41,0.00,,,0.37,meteohub,2013-01-31 14:15:00,
2013-01-31 09:16:00,46.9,26.8,29.57,West,274,14.0,26.0,41,0.00,,,0.37,meteohub,2013-01-31 14:16:00,
2013-01-31 09:17:00,47.1,27.0,29.57,NW,320,15.0,26.0,41,0.00,,,0.37,meteohub,2013-01-31 14:17:00,
2013-01-31 09:18:00,47.3,26.6,29.57,SSW,207,11.0,26.0,40,0.00,,,0.37,meteohub,2013-01-31 14:18:00,
2013-01-31 09:20:00,47.5,27.1,29.57,NW,320,13.0,26.0,40,0.00,,,0.37,meteohub,2013-01-31 14:20:00,
2013-01-31 09:21:00,48.0,27.5,29.57,SW,230,6.0,26.0,40,0.00,,,0.37,meteohub,2013-01-31 14:21:00,
2013-01-31 09:23:00,48.2,27.9,29.57,SW,230,13.0,26.0,40,0.00,,,0.37,meteohub,2013-01-31 14:23:00,
2013-01-31 09:24:00,48.4,28.0,29.57,SW,230,17.0,26.0,40,0.00,,,0.37,meteohub,2013-01-31 14:24:00,
2013-01-31 09:26:00,48.6,27.9,29.57,SW,230,11.0,23.0,39,0.00,,,0.37,meteohub,2013-01-31 14:26:00,
2013-01-31 09:27:00,48.7,28.2,29.57,West,274,6.0,23.0,39,0.00,,,0.37,meteohub,2013-01-31 14:27:00,
2013-01-31 09:28:00,49.1,28.4,29.57,SW,230,6.0,23.0,39,0.00,,,0.37,meteohub,2013-01-31 14:28:00,
2013-01-31 09:29:00,49.1,28.6,29.57,WSW,252,7.0,23.0,39,0.00,,,0.37,meteohub,2013-01-31 14:29:00,
2013-01-31 09:31:00,49.5,29.1,29.57,SSW,207,7.0,20.0,39,0.00,,,0.37,meteohub,2013-01-31 14:31:00,
2013-01-31 09:32:00,49.5,28.6,29.57,West,274,11.0,20.0,38,0.00,,,0.37,meteohub,2013-01-31 14:32:00,
2013-01-31 09:33:00,49.8,28.9,29.57,East,94,14.0,20.0,38,0.00,,,0.37,meteohub,2013-01-31 14:33:00,
2013-01-31 09:34:00,49.8,29.1,29.57,West,274,8.0,20.0,38,0.00,,,0.37,meteohub,2013-01-31 14:34:00,
2013-01-31 09:36:00,50.0,29.5,29.57,West,274,6.0,20.0,38,0.00,,,0.37,meteohub,2013-01-31 14:36:00,
2013-01-31 09:37:00,50.0,29.5,29.57,WSW,252,9.0,20.0,38,0.00,,,0.37,meteohub,2013-01-31 14:37:00,
2013-01-31 09:39:00,50.4,29.8,29.57,SW,230,6.0,20.0,38,0.00,,,0.37,meteohub,2013-01-31 14:39:00,
2013-01-31 09:41:00,50.9,29.7,29.57,SW,230,13.0,20.0,37,0.00,,,0.37,meteohub,2013-01-31 14:41:00,
2013-01-31 09:42:00,50.9,29.8,29.57,SW,230,10.0,20.0,37,0.00,,,0.37,meteohub,2013-01-31 14:42:00,
2013-01-31 09:44:00,51.1,30.2,29.57,West,274,8.0,20.0,37,0.00,,,0.37,meteohub,2013-01-31 14:44:00,
2013-01-31 09:45:00,51.3,30.4,29.57,West,274,6.0,20.0,37,0.00,,,0.37,meteohub,2013-01-31 14:45:00,
2013-01-31 09:46:00,51.4,30.7,29.57,SW,230,11.0,18.0,37,0.00,,,0.37,meteohub,2013-01-31 14:46:00,
2013-01-31 09:48:00,51.6,30.2,29.60,West,274,10.0,18.0,36,0.00,,,0.37,meteohub,2013-01-31 14:48:00,
2013-01-31 09:49:00,51.8,30.9,29.60,WNW,297,13.0,18.0,37,0.00,,,0.37,meteohub,2013-01-31 14:49:00,
2013-01-31 09:50:00,51.8,30.6,29.60,NW,320,8.0,18.0,36,0.00,,,0.37,meteohub,2013-01-31 14:50:00,
2013-01-31 09:51:00,52.2,30.7,29.60,SSW,207,19.0,19.0,36,0.00,,,0.37,meteohub,2013-01-31 14:51:00,
2013-01-31 09:54:00,52.2,31.1,29.60,SW,230,10.0,18.0,36,0.00,,,0.37,meteohub,2013-01-31 14:54:00,
2013-01-31 09:55:00,52.3,31.3,29.60,West,274,14.0,19.0,36,0.00,,,0.37,meteohub,2013-01-31 14:55:00,
2013-01-31 09:56:00,52.3,31.5,29.60,West,274,11.0,19.0,36,0.00,,,0.37,meteohub,2013-01-31 14:56:00,
2013-01-31 09:59:00,52.3,30.7,29.60,SW,230,7.0,19.0,35,0.00,,,0.37,meteohub,2013-01-31 14:59:00,
2013-01-31 10:00:00,52.3,30.9,29.60,NW,320,12.0,21.0,35,0.00,,,0.37,meteohub,2013-01-31 15:00:00,
2013-01-31 10:02:00,52.5,31.1,29.60,SW,230,15.0,21.0,35,0.00,,,0.37,meteohub,2013-01-31 15:02:00,
2013-01-31 10:04:00,52.7,31.5,29.60,West,274,11.0,21.0,35,0.00,,,0.37,meteohub,2013-01-31 15:04:00,
2013-01-31 10:05:00,52.7,31.5,29.60,West,274,11.0,21.0,35,0.00,,,0.37,meteohub,2013-01-31 15:05:00,
2013-01-31 10:07:00,52.7,31.5,29.60,North,4,9.0,21.0,35,0.00,,,0.37,meteohub,2013-01-31 15:07:00,
2013-01-31 10:10:00,52.7,30.9,29.60,West,274,11.0,21.0,34,0.00,,,0.37,meteohub,2013-01-31 15:10:00,
2013-01-31 10:11:00,52.5,30.7,29.60,West,274,6.0,21.0,34,0.00,,,0.37,meteohub,2013-01-31 15:11:00,
2013-01-31 10:12:00,52.5,30.7,29.60,WSW,252,13.0,21.0,34,0.00,,,0.37,meteohub,2013-01-31 15:12:00,
2013-01-31 10:15:00,52.7,30.9,29.60,NNW,342,15.0,21.0,34,0.00,,,0.37,meteohub,2013-01-31 15:15:00,
2013-01-31 10:16:00,52.9,31.1,29.62,WNW,297,12.0,23.0,34,0.00,,,0.37,meteohub,2013-01-31 15:16:00,
2013-01-31 10:17:00,52.9,31.1,29.62,SSW,207,10.0,23.0,34,0.00,,,0.37,meteohub,2013-01-31 15:17:00,
2013-01-31 10:20:00,53.2,31.5,29.62,West,274,8.0,23.0,34,0.00,,,0.37,meteohub,2013-01-31 15:20:00,
2013-01-31 10:22:00,53.4,31.8,29.62,WSW,252,15.0,23.0,34,0.00,,,0.37,meteohub,2013-01-31 15:22:00,
2013-01-31 10:25:00,53.4,32.0,29.62,SW,230,23.0,23.0,34,0.00,,,0.37,meteohub,2013-01-31 15:25:00,
2013-01-31 10:27:00,53.6,31.3,29.62,West,274,6.0,17.0,33,0.00,,,0.37,meteohub,2013-01-31 15:27:00,
2013-01-31 10:28:00,53.6,31.3,29.62,West,274,11.0,17.0,33,0.00,,,0.37,meteohub,2013-01-31 15:28:00,
2013-01-31 10:30:00,53.4,30.6,29.62,WSW,252,22.0,22.0,32,0.00,,,0.37,meteohub,2013-01-31 15:30:00,
2013-01-31 10:32:00,52.9,29.3,29.62,West,274,13.0,28.0,31,0.00,,,0.37,meteohub,2013-01-31 15:32:00,
2013-01-31 10:33:00,52.7,28.4,29.62,West,274,19.0,28.0,30,0.00,,,0.37,meteohub,2013-01-31 15:33:00,
2013-01-31 10:35:00,52.5,28.2,29.62,West,274,10.0,28.0,30,0.00,,,0.37,meteohub,2013-01-31 15:35:00,
2013-01-31 10:37:00,52.9,28.4,29.62,WSW,252,10.0,28.0,30,0.00,,,0.37,meteohub,2013-01-31 15:37:00,
2013-01-31 10:38:00,53.1,28.6,29.62,WSW,252,12.0,28.0,30,0.00,,,0.37,meteohub,2013-01-31 15:38:00,
2013-01-31 10:40:00,53.2,29.7,29.62,NW,320,24.0,28.0,31,0.00,,,0.37,meteohub,2013-01-31 15:40:00,
2013-01-31 10:42:00,53.4,29.7,29.62,West,274,10.0,28.0,31,0.00,,,0.37,meteohub,2013-01-31 15:42:00,
2013-01-31 10:43:00,53.4,29.8,29.62,West,274,21.0,28.0,31,0.00,,,0.37,meteohub,2013-01-31 15:43:00,
2013-01-31 10:45:00,53.6,29.1,29.62,WSW,252,17.0,24.0,30,0.00,,,0.37,meteohub,2013-01-31 15:45:00,
2013-01-31 10:47:00,53.6,29.1,29.62,SW,230,9.0,24.0,30,0.00,,,0.37,meteohub,2013-01-31 15:47:00,
2013-01-31 10:48:00,53.6,29.1,29.62,SW,230,6.0,24.0,30,0.00,,,0.37,meteohub,2013-01-31 15:48:00,
2013-01-31 10:49:00,53.6,29.1,29.62,WSW,252,12.0,24.0,30,0.00,,,0.37,meteohub,2013-01-31 15:49:00,
2013-01-31 10:51:00,53.6,28.9,29.62,West,274,9.0,24.0,30,0.00,,,0.37,meteohub,2013-01-31 15:51:00,
2013-01-31 10:53:00,53.8,29.1,29.62,South,184,15.0,24.0,30,0.00,,,0.37,meteohub,2013-01-31 15:53:00,
2013-01-31 10:54:00,53.6,29.1,29.62,NW,320,11.0,24.0,30,0.00,,,0.37,meteohub,2013-01-31 15:54:00,
2013-01-31 10:56:00,53.2,28.9,29.62,SW,230,13.0,24.0,30,0.00,,,0.37,meteohub,2013-01-31 15:56:00,
2013-01-31 10:58:00,53.4,28.9,29.62,West,274,13.0,24.0,30,0.00,,,0.37,meteohub,2013-01-31 15:58:00,
2013-01-31 10:59:00,53.4,28.9,29.62,SW,230,15.0,24.0,30,0.00,,,0.37,meteohub,2013-01-31 15:59:00,
2013-01-31 11:01:00,53.2,28.8,29.62,West,274,17.0,23.0,30,0.00,,,0.37,meteohub,2013-01-31 16:01:00,
2013-01-31 11:03:00,53.1,28.6,29.62,West,274,15.0,23.0,30,0.00,,,0.37,meteohub,2013-01-31 16:03:00,
2013-01-31 11:04:00,53.1,28.6,29.62,SW,230,8.0,23.0,30,0.00,,,0.37,meteohub,2013-01-31 16:04:00,
2013-01-31 11:05:00,53.2,28.6,29.62,WSW,252,10.0,23.0,30,0.00,,,0.37,meteohub,2013-01-31 16:05:00,
2013-01-31 11:06:00,53.2,28.6,29.62,NW,320,15.0,23.0,30,0.00,,,0.37,meteohub,2013-01-31 16:06:00,
2013-01-31 11:08:00,53.6,28.6,29.62,North,4,6.0,23.0,30,0.00,,,0.37,meteohub,2013-01-31 16:08:00,
2013-01-31 11:10:00,53.8,28.8,29.62,SW,230,5.0,23.0,30,0.00,,,0.37,meteohub,2013-01-31 16:10:00,
2013-01-31 11:11:00,54.0,28.8,29.62,West,274,9.0,22.0,30,0.00,,,0.37,meteohub,2013-01-31 16:11:00,
2013-01-31 11:13:00,54.0,28.9,29.62,WNW,297,12.0,22.0,30,0.00,,,0.37,meteohub,2013-01-31 16:13:00,
2013-01-31 11:15:00,53.8,28.9,29.62,West,274,10.0,22.0,30,0.00,,,0.37,meteohub,2013-01-31 16:15:00,
2013-01-31 11:16:00,54.0,28.9,29.62,NW,320,10.0,22.0,30,0.00,,,0.37,meteohub,2013-01-31 16:16:00,
2013-01-31 11:17:00,54.0,28.9,29.60,SW,230,11.0,22.0,30,0.00,,,0.37,meteohub,2013-01-31 16:17:00,
2013-01-31 11:18:00,54.0,28.9,29.60,WSW,252,12.0,22.0,30,0.00,,,0.37,meteohub,2013-01-31 16:18:00,
2013-01-31 11:20:00,54.0,28.9,29.60,WSW,252,12.0,22.0,30,0.00,,,0.37,meteohub,2013-01-31 16:20:00,
2013-01-31 11:21:00,54.0,28.9,29.60,West,274,19.0,24.0,30,0.00,,,0.37,meteohub,2013-01-31 16:21:00,
2013-01-31 11:22:00,54.1,28.9,29.60,SW,230,17.0,24.0,30,0.00,,,0.37,meteohub,2013-01-31 16:22:00,
2013-01-31 11:24:00,54.1,28.0,29.60,West,274,11.0,24.0,29,0.00,,,0.37,meteohub,2013-01-31 16:24:00,
2013-01-31 11:25:00,54.1,28.9,29.60,SW,230,15.0,24.0,30,0.00,,,0.37,meteohub,2013-01-31 16:25:00,
2013-01-31 11:26:00,54.1,28.0,29.60,SW,230,29.0,29.0,29,0.00,,,0.37,meteohub,2013-01-31 16:26:00,
2013-01-31 11:27:00,54.0,28.0,29.60,WSW,252,15.0,24.0,29,0.00,,,0.37,meteohub,2013-01-31 16:27:00,
2013-01-31 11:29:00,53.6,27.7,29.60,SW,230,26.0,26.0,29,0.00,,,0.37,meteohub,2013-01-31 16:29:00,
2013-01-31 11:30:00,53.6,27.5,29.60,SW,230,15.0,29.0,29,0.00,,,0.37,meteohub,2013-01-31 16:30:00,
2013-01-31 11:31:00,53.6,27.3,29.60,WSW,252,13.0,29.0,29,0.00,,,0.37,meteohub,2013-01-31 16:31:00,
2013-01-31 11:32:00,53.8,27.5,29.62,SW,230,17.0,29.0,29,0.00,,,0.37,meteohub,2013-01-31 16:32:00,
2013-01-31 11:35:00,53.6,27.3,29.62,West,274,15.0,29.0,29,0.00,,,0.37,meteohub,2013-01-31 16:35:00,
2013-01-31 11:36:00,53.6,27.3,29.62,SW,230,13.0,29.0,29,0.00,,,0.37,meteohub,2013-01-31 16:36:00,
2013-01-31 11:38:00,53.4,27.3,29.62,SW,230,12.0,29.0,29,0.00,,,0.37,meteohub,2013-01-31 16:38:00,
2013-01-31 11:40:00,53.8,27.3,29.62,West,274,10.0,29.0,29,0.00,,,0.37,meteohub,2013-01-31 16:40:00,
2013-01-31 11:41:00,53.8,27.3,29.62,West,274,9.0,29.0,29,0.00,,,0.37,meteohub,2013-01-31 16:41:00,
2013-01-31 11:43:00,54.0,27.5,29.62,WSW,252,10.0,29.0,29,0.00,,,0.37,meteohub,2013-01-31 16:43:00,
2013-01-31 11:45:00,54.0,27.5,29.62,WSW,252,9.0,23.0,29,0.00,,,0.37,meteohub,2013-01-31 16:45:00,
2013-01-31 11:46:00,53.8,27.3,29.62,NW,320,13.0,23.0,29,0.00,,,0.37,meteohub,2013-01-31 16:46:00,
2013-01-31 11:47:00,54.0,27.3,29.62,SW,230,6.0,23.0,29,0.00,,,0.37,meteohub,2013-01-31 16:47:00,
2013-01-31 11:48:00,54.1,27.3,29.62,WSW,252,9.0,23.0,29,0.00,,,0.37,meteohub,2013-01-31 16:48:00,
2013-01-31 11:51:00,54.1,27.3,29.62,WNW,297,11.0,19.0,29,0.00,,,0.37,meteohub,2013-01-31 16:51:00,
2013-01-31 11:52:00,54.3,27.5,29.62,SW,230,23.0,23.0,29,0.00,,,0.37,meteohub,2013-01-31 16:52:00,
2013-01-31 11:54:00,54.3,26.8,29.62,West,274,13.0,19.0,28,0.00,,,0.37,meteohub,2013-01-31 16:54:00,
2013-01-31 11:56:00,54.3,27.7,29.62,SW,230,23.0,28.0,29,0.00,,,0.37,meteohub,2013-01-31 16:56:00,
2013-01-31 11:57:00,54.3,27.7,29.62,SW,230,19.0,28.0,29,0.00,,,0.37,meteohub,2013-01-31 16:57:00,
2013-01-31 11:59:00,54.3,27.7,29.62,SSW,207,10.0,28.0,29,0.00,,,0.37,meteohub,2013-01-31 16:59:00,
2013-01-31 12:01:00,54.5,27.7,29.62,SW,230,8.0,28.0,29,0.00,,,0.37,meteohub,2013-01-31 17:01:00,
2013-01-31 12:02:00,54.5,27.7,29.62,West,274,10.0,28.0,29,0.00,,,0.37,meteohub,2013-01-31 17:02:00,
2013-01-31 12:05:00,54.7,27.9,29.62,SW,230,12.0,28.0,29,0.00,,,0.37,meteohub,2013-01-31 17:05:00,
2013-01-31 12:06:00,54.9,27.9,29.62,West,274,6.0,30.0,29,0.00,,,0.37,meteohub,2013-01-31 17:06:00,
2013-01-31 12:07:00,54.9,27.9,29.62,WSW,252,18.0,30.0,29,0.00,,,0.37,meteohub,2013-01-31 17:07:00,
2013-01-31 12:10:00,54.7,27.7,29.62,SW,230,11.0,30.0,29,0.00,,,0.37,meteohub,2013-01-31 17:10:00,
2013-01-31 12:11:00,54.3,27.7,29.62,WSW,252,23.0,30.0,29,0.00,,,0.37,meteohub,2013-01-31 17:11:00,
2013-01-31 12:12:00,54.3,27.7,29.62,South,184,14.0,30.0,29,0.00,,,0.37,meteohub,2013-01-31 17:12:00,
2013-01-31 12:15:00,54.5,27.7,29.62,SW,230,12.0,30.0,29,0.00,,,0.37,meteohub,2013-01-31 17:15:00,
2013-01-31 12:16:00,54.1,27.5,29.62,SW,230,19.0,23.0,29,0.00,,,0.37,meteohub,2013-01-31 17:16:00,
2013-01-31 12:17:00,54.1,27.5,29.62,SW,230,12.0,23.0,29,0.00,,,0.37,meteohub,2013-01-31 17:17:00,
2013-01-31 12:18:00,54.0,27.3,29.62,SW,230,15.0,23.0,29,0.00,,,0.37,meteohub,2013-01-31 17:18:00,
2013-01-31 12:20:00,53.8,26.2,29.62,NNW,342,9.0,25.0,28,0.00,,,0.37,meteohub,2013-01-31 17:20:00,
2013-01-31 12:21:00,53.6,26.1,29.62,SW,230,24.0,25.0,28,0.00,,,0.37,meteohub,2013-01-31 17:21:00,
2013-01-31 12:22:00,53.6,26.1,29.62,SW,230,24.0,25.0,28,0.00,,,0.37,meteohub,2013-01-31 17:22:00,
2013-01-31 12:23:00,53.4,25.9,29.62,NW,320,14.0,25.0,28,0.00,,,0.37,meteohub,2013-01-31 17:23:00,
2013-01-31 12:25:00,53.6,27.0,29.62,WNW,297,19.0,25.0,29,0.00,,,0.37,meteohub,2013-01-31 17:25:00,
2013-01-31 12:27:00,53.6,27.0,29.62,WNW,297,24.0,25.0,29,0.00,,,0.37,meteohub,2013-01-31 17:27:00,
2013-01-31 12:28:00,53.6,25.9,29.62,West,274,13.0,25.0,28,0.00,,,0.37,meteohub,2013-01-31 17:28:00,
2013-01-31 12:30:00,53.6,25.9,29.62,West,274,15.0,25.0,28,0.00,,,0.37,meteohub,2013-01-31 17:30:00,
2013-01-31 12:32:00,53.4,25.7,29.62,WSW,252,13.0,25.0,28,0.00,,,0.37,meteohub,2013-01-31 17:32:00,
2013-01-31 12:33:00,53.6,26.6,29.65,SW,230,13.0,25.0,29,0.00,,,0.37,meteohub,2013-01-31 17:33:00,
2013-01-31 12:36:00,53.6,25.9,29.65,West,274,14.0,24.0,28,0.00,,,0.37,meteohub,2013-01-31 17:36:00,
2013-01-31 12:37:00,53.8,25.9,29.65,WNW,297,10.0,24.0,28,0.00,,,0.37,meteohub,2013-01-31 17:37:00,
2013-01-31 12:38:00,54.0,26.1,29.65,WSW,252,6.0,24.0,28,0.00,,,0.37,meteohub,2013-01-31 17:38:00,
2013-01-31 12:41:00,53.8,25.9,29.65,NW,320,10.0,24.0,28,0.00,,,0.37,meteohub,2013-01-31 17:41:00,
2013-01-31 12:42:00,54.0,25.9,29.65,WSW,252,5.0,24.0,28,0.00,,,0.37,meteohub,2013-01-31 17:42:00,
2013-01-31 12:44:00,54.0,26.1,29.65,West,274,6.0,24.0,28,0.00,,,0.37,meteohub,2013-01-31 17:44:00,
2013-01-31 12:46:00,53.6,25.7,29.65,WSW,252,16.0,24.0,28,0.00,,,0.37,meteohub,2013-01-31 17:46:00,
2013-01-31 12:47:00,53.4,25.7,29.65,WSW,252,11.0,24.0,28,0.00,,,0.37,meteohub,2013-01-31 17:47:00,
2013-01-31 12:48:00,53.4,25.7,29.65,West,274,10.0,24.0,28,0.00,,,0.37,meteohub,2013-01-31 17:48:00,
2013-01-31 12:49:00,53.4,25.7,29.65,West,274,12.0,24.0,28,0.00,,,0.37,meteohub,2013-01-31 17:49:00,
2013-01-31 12:51:00,53.2,26.2,29.65,West,274,10.0,23.0,29,0.00,,,0.37,meteohub,2013-01-31 17:51:00,
2013-01-31 12:53:00,52.9,25.2,29.65,WSW,252,13.0,23.0,28,0.00,,,0.37,meteohub,2013-01-31 17:53:00,
2013-01-31 12:54:00,52.3,24.8,29.65,SW,230,12.0,23.0,28,0.00,,,0.37,meteohub,2013-01-31 17:54:00,
2013-01-31 12:56:00,52.3,25.5,29.65,WNW,297,10.0,23.0,29,0.00,,,0.37,meteohub,2013-01-31 17:56:00,
2013-01-31 12:58:00,52.3,25.5,29.65,SW,230,6.0,23.0,29,0.00,,,0.37,meteohub,2013-01-31 17:58:00,
2013-01-31 12:59:00,52.2,25.3,29.65,WNW,297,14.0,23.0,29,0.00,,,0.37,meteohub,2013-01-31 17:59:00,
2013-01-31 13:01:00,51.8,25.2,29.65,WSW,252,18.0,19.0,29,0.00,,,0.37,meteohub,2013-01-31 18:01:00,
2013-01-31 13:03:00,51.4,24.8,29.65,WSW,252,17.0,19.0,29,0.00,,,0.37,meteohub,2013-01-31 18:03:00,
2013-01-31 13:04:00,51.3,23.9,29.65,North,4,14.0,19.0,28,0.00,,,0.37,meteohub,2013-01-31 18:04:00,
2013-01-31 13:07:00,51.4,23.7,29.65,West,274,9.0,19.0,28,0.00,,,0.37,meteohub,2013-01-31 18:07:00,
2013-01-31 13:09:00,51.6,23.7,29.65,WNW,297,11.0,19.0,28,0.00,,,0.37,meteohub,2013-01-31 18:09:00,
2013-01-31 13:12:00,51.8,23.9,29.65,WNW,297,12.0,19.0,28,0.00,,,0.37,meteohub,2013-01-31 18:12:00,
2013-01-31 13:14:00,52.2,23.9,29.65,West,274,6.0,19.0,28,0.00,,,0.37,meteohub,2013-01-31 18:14:00,
2013-01-31 13:15:00,52.2,23.9,29.65,WSW,252,17.0,19.0,28,0.00,,,0.37,meteohub,2013-01-31 18:15:00,
2013-01-31 13:17:00,52.3,24.1,29.65,SSW,207,10.0,24.0,28,0.00,,,0.37,meteohub,2013-01-31 18:17:00,
2013-01-31 13:19:00,52.3,24.1,29.65,West,274,9.0,24.0,28,0.00,,,0.37,meteohub,2013-01-31 18:19:00,
2013-01-31 13:20:00,52.2,23.9,29.65,West,274,6.0,24.0,28,0.00,,,0.37,meteohub,2013-01-31 18:20:00,
2013-01-31 13:22:00,52.0,23.9,29.65,WSW,252,26.0,26.0,28,0.00,,,0.37,meteohub,2013-01-31 18:22:00,
2013-01-31 13:24:00,52.0,23.9,29.65,SW,230,16.0,24.0,28,0.00,,,0.37,meteohub,2013-01-31 18:24:00,
2013-01-31 13:25:00,51.8,23.9,29.65,SW,230,18.0,24.0,28,0.00,,,0.37,meteohub,2013-01-31 18:25:00,
2013-01-31 13:28:00,51.8,23.7,29.65,WSW,252,23.0,26.0,28,0.00,,,0.37,meteohub,2013-01-31 18:28:00,
2013-01-31 13:29:00,51.8,23.7,29.65,SSW,207,17.0,26.0,28,0.00,,,0.37,meteohub,2013-01-31 18:29:00,
2013-01-31 13:30:00,51.8,23.5,29.65,West,274,12.0,26.0,28,0.00,,,0.37,meteohub,2013-01-31 18:30:00,
2013-01-31 13:33:00,51.8,23.5,29.65,SW,230,19.0,26.0,28,0.00,,,0.37,meteohub,2013-01-31 18:33:00,
2013-01-31 13:34:00,51.8,23.5,29.65,SW,230,16.0,26.0,28,0.00,,,0.37,meteohub,2013-01-31 18:34:00,
2013-01-31 13:35:00,51.8,23.5,29.65,West,274,13.0,26.0,28,0.00,,,0.37,meteohub,2013-01-31 18:35:00,
2013-01-31 13:38:00,51.6,23.4,29.65,SW,230,8.0,26.0,28,0.00,,,0.37,meteohub,2013-01-31 18:38:00,
2013-01-31 13:39:00,51.6,23.4,29.65,NW,320,13.0,26.0,28,0.00,,,0.37,meteohub,2013-01-31 18:39:00,
2013-01-31 13:40:00,51.6,23.4,29.65,WSW,252,8.0,27.0,28,0.00,,,0.37,meteohub,2013-01-31 18:40:00,
2013-01-31 13:41:00,51.6,23.4,29.65,WSW,252,8.0,27.0,28,0.00,,,0.37,meteohub,2013-01-31 18:41:00,
2013-01-31 13:44:00,50.9,22.6,29.65,West,274,14.0,27.0,28,0.00,,,0.37,meteohub,2013-01-31 18:44:00,
2013-01-31 13:45:00,50.7,22.5,29.65,West,274,9.0,27.0,28,0.00,,,0.37,meteohub,2013-01-31 18:45:00,
2013-01-31 13:46:00,50.7,22.5,29.65,WNW,297,6.0,27.0,28,0.00,,,0.37,meteohub,2013-01-31 18:46:00,
2013-01-31 13:49:00,50.9,22.3,29.65,NW,320,9.0,27.0,28,0.00,,,0.37,meteohub,2013-01-31 18:49:00,
2013-01-31 13:50:00,50.9,22.3,29.65,West,274,15.0,22.0,28,0.00,,,0.37,meteohub,2013-01-31 18:50:00,
2013-01-31 13:51:00,50.7,22.1,29.65,SW,230,11.0,22.0,28,0.00,,,0.37,meteohub,2013-01-31 18:51:00,
2013-01-31 13:54:00,50.4,21.9,29.65,West,274,13.0,22.0,28,0.00,,,0.37,meteohub,2013-01-31 18:54:00,
2013-01-31 13:56:00,50.2,21.7,29.65,West,274,16.0,24.0,28,0.00,,,0.37,meteohub,2013-01-31 18:56:00,
2013-01-31 13:59:00,50.2,21.6,29.65,SW,230,19.0,24.0,28,0.00,,,0.37,meteohub,2013-01-31 18:59:00,
2013-01-31 14:01:00,50.5,21.6,29.65,WSW,252,17.0,24.0,28,0.00,,,0.37,meteohub,2013-01-31 19:01:00,
2013-01-31 14:02:00,50.4,21.6,29.65,WSW,252,14.0,24.0,28,0.00,,,0.37,meteohub,2013-01-31 19:02:00,
2013-01-31 14:04:00,50.5,21.4,29.65,West,274,13.0,24.0,28,0.00,,,0.37,meteohub,2013-01-31 19:04:00,
2013-01-31 14:06:00,50.4,21.9,29.65,West,274,13.0,24.0,29,0.00,,,0.37,meteohub,2013-01-31 19:06:00,
2013-01-31 14:07:00,50.4,21.9,29.65,SSW,207,15.0,24.0,29,0.00,,,0.37,meteohub,2013-01-31 19:07:00,
2013-01-31 14:08:00,50.2,21.7,29.65,SW,230,8.0,24.0,29,0.00,,,0.37,meteohub,2013-01-31 19:08:00,
2013-01-31 14:10:00,50.0,21.6,29.65,WSW,252,6.0,24.0,29,0.00,,,0.37,meteohub,2013-01-31 19:10:00,
2013-01-31 14:11:00,50.2,21.6,29.65,West,274,6.0,22.0,29,0.00,,,0.37,meteohub,2013-01-31 19:11:00,
2013-01-31 14:12:00,50.2,21.6,29.65,SW,230,11.0,22.0,29,0.00,,,0.37,meteohub,2013-01-31 19:12:00,
2013-01-31 14:13:00,50.2,21.6,29.65,West,274,11.0,22.0,29,0.00,,,0.37,meteohub,2013-01-31 19:13:00,
2013-01-31 14:15:00,49.8,21.4,29.65,North,4,6.0,22.0,29,0.00,,,0.37,meteohub,2013-01-31 19:15:00,
2013-01-31 14:17:00,49.3,21.2,29.68,NNW,342,11.0,22.0,29,0.00,,,0.37,meteohub,2013-01-31 19:17:00,
2013-01-31 14:18:00,48.9,21.0,29.68,NW,320,13.0,22.0,29,0.00,,,0.37,meteohub,2013-01-31 19:18:00,
2013-01-31 14:20:00,49.1,20.8,29.68,West,274,5.0,21.0,29,0.00,,,0.37,meteohub,2013-01-31 19:20:00,
2013-01-31 14:22:00,48.7,20.7,29.68,SW,230,13.0,21.0,29,0.00,,,0.37,meteohub,2013-01-31 19:22:00,
2013-01-31 14:23:00,48.6,20.7,29.68,SW,230,11.0,21.0,29,0.00,,,0.37,meteohub,2013-01-31 19:23:00,
2013-01-31 14:25:00,48.4,21.4,29.68,SW,230,10.0,21.0,30,0.00,,,0.37,meteohub,2013-01-31 19:25:00,
2013-01-31 14:27:00,48.2,21.2,29.68,West,274,15.0,21.0,30,0.00,,,0.37,meteohub,2013-01-31 19:27:00,
2013-01-31 14:28:00,48.2,21.2,29.68,WNW,297,12.0,21.0,30,0.00,,,0.37,meteohub,2013-01-31 19:28:00,
2013-01-31 14:31:00,48.2,21.0,29.68,NW,320,9.0,20.0,30,0.00,,,0.37,meteohub,2013-01-31 19:31:00,
2013-01-31 14:32:00,47.8,20.8,29.68,SW,230,6.0,20.0,30,0.00,,,0.37,meteohub,2013-01-31 19:32:00,
2013-01-31 14:33:00,47.8,20.8,29.68,WSW,252,11.0,20.0,30,0.00,,,0.37,meteohub,2013-01-31 19:33:00,
2013-01-31 14:37:00,47.3,20.5,29.68,NW,320,11.0,20.0,30,0.00,,,0.37,meteohub,2013-01-31 19:37:00,
2013-01-31 14:38:00,47.1,20.5,29.68,WNW,297,6.0,20.0,30,0.00,,,0.37,meteohub,2013-01-31 19:38:00,
2013-01-31 14:39:00,47.1,20.5,29.68,SW,230,15.0,20.0,30,0.00,,,0.37,meteohub,2013-01-31 19:39:00,
2013-01-31 14:42:00,46.9,20.1,29.68,West,274,15.0,15.0,30,0.00,,,0.37,meteohub,2013-01-31 19:42:00,
2013-01-31 14:43:00,46.8,20.1,29.68,West,274,6.0,15.0,30,0.00,,,0.37,meteohub,2013-01-31 19:43:00,
2013-01-31 14:44:00,46.8,20.1,29.68,West,274,6.0,15.0,30,0.00,,,0.37,meteohub,2013-01-31 19:44:00,
2013-01-31 14:47:00,46.6,19.9,29.68,WNW,297,12.0,16.0,30,0.00,,,0.37,meteohub,2013-01-31 19:47:00,
2013-01-31 14:48:00,46.6,20.7,29.68,NW,320,15.0,16.0,31,0.00,,,0.37,meteohub,2013-01-31 19:48:00,
2013-01-31 14:49:00,46.6,20.7,29.68,NW,320,17.0,17.0,31,0.00,,,0.37,meteohub,2013-01-31 19:49:00,
2013-01-31 14:53:00,46.4,20.5,29.68,West,274,11.0,16.0,31,0.00,,,0.37,meteohub,2013-01-31 19:53:00,
2013-01-31 14:54:00,46.2,20.3,29.68,WSW,252,11.0,16.0,31,0.00,,,0.37,meteohub,2013-01-31 19:54:00,
2013-01-31 14:58:00,46.2,20.3,29.68,SW,230,13.0,18.0,31,0.00,,,0.37,meteohub,2013-01-31 19:58:00,
2013-01-31 14:59:00,46.2,20.3,29.68,SW,230,10.0,18.0,31,0.00,,,0.37,meteohub,2013-01-31 19:59:00,
2013-01-31 15:03:00,46.0,19.9,29.71,SW,230,8.0,18.0,31,0.00,,,0.37,meteohub,2013-01-31 20:03:00,
2013-01-31 15:04:00,46.0,19.9,29.71,West,274,9.0,18.0,31,0.00,,,0.37,meteohub,2013-01-31 20:04:00,
2013-01-31 15:05:00,46.0,19.9,29.71,WSW,252,8.0,18.0,31,0.00,,,0.37,meteohub,2013-01-31 20:05:00,
2013-01-31 15:09:00,46.2,20.7,29.71,West,274,16.0,18.0,32,0.00,,,0.37,meteohub,2013-01-31 20:09:00,
2013-01-31 15:10:00,46.0,20.7,29.71,WNW,297,14.0,18.0,32,0.00,,,0.37,meteohub,2013-01-31 20:10:00,
2013-01-31 15:14:00,46.0,20.5,29.71,SW,230,9.0,16.0,32,0.00,,,0.37,meteohub,2013-01-31 20:14:00,
2013-01-31 15:15:00,46.0,20.5,29.71,WSW,252,7.0,16.0,32,0.00,,,0.37,meteohub,2013-01-31 20:15:00,
2013-01-31 15:19:00,45.9,19.6,29.71,West,274,9.0,16.0,31,0.00,,,0.37,meteohub,2013-01-31 20:19:00,
2013-01-31 15:20:00,46.0,19.6,29.71,NW,320,11.0,16.0,31,0.00,,,0.37,meteohub,2013-01-31 20:20:00,
2013-01-31 15:21:00,46.0,20.3,29.71,NW,320,9.0,16.0,32,0.00,,,0.37,meteohub,2013-01-31 20:21:00,
2013-01-31 15:24:00,46.2,20.3,29.71,West,274,9.0,16.0,32,0.00,,,0.37,meteohub,2013-01-31 20:24:00,
2013-01-31 15:25:00,46.2,20.5,29.71,West,274,8.0,15.0,32,0.00,,,0.37,meteohub,2013-01-31 20:25:00,
2013-01-31 15:26:00,46.2,20.5,29.71,WSW,252,8.0,15.0,32,0.00,,,0.37,meteohub,2013-01-31 20:26:00,
2013-01-31 15:30:00,46.2,21.2,29.71,SE,140,11.0,15.0,33,0.00,,,0.37,meteohub,2013-01-31 20:30:00,
2013-01-31 15:31:00,46.2,21.2,29.71,West,274,8.0,12.0,33,0.00,,,0.37,meteohub,2013-01-31 20:31:00,
2013-01-31 15:35:00,46.2,20.3,29.74,SW,230,13.0,13.0,32,0.00,,,0.37,meteohub,2013-01-31 20:35:00,
2013-01-31 15:36:00,46.4,20.3,29.74,SW,230,13.0,25.0,32,0.00,,,0.37,meteohub,2013-01-31 20:36:00,
2013-01-31 15:40:00,46.6,19.4,29.74,West,274,12.0,25.0,31,0.00,,,0.37,meteohub,2013-01-31 20:40:00,
2013-01-31 15:41:00,46.4,19.4,29.74,West,274,24.0,25.0,31,0.00,,,0.37,meteohub,2013-01-31 20:41:00,
2013-01-31 15:42:00,46.4,19.4,29.74,West,274,11.0,25.0,31,0.00,,,0.37,meteohub,2013-01-31 20:42:00,
2013-01-31 15:46:00,46.0,19.2,29.74,WSW,252,28.0,28.0,31,0.00,,,0.37,meteohub,2013-01-31 20:46:00,
2013-01-31 15:47:00,46.0,19.2,29.74,SW,230,25.0,25.0,31,0.00,,,0.37,meteohub,2013-01-31 20:47:00,
2013-01-31 15:51:00,46.2,19.2,29.74,SSW,207,13.0,28.0,31,0.00,,,0.37,meteohub,2013-01-31 20:51:00,
2013-01-31 15:52:00,46.2,19.2,29.74,SSE,162,6.0,28.0,31,0.00,,,0.37,meteohub,2013-01-31 20:52:00,
2013-01-31 15:56:00,45.9,19.0,29.74,West,274,7.0,28.0,31,0.00,,,0.37,meteohub,2013-01-31 20:56:00,
2013-01-31 15:57:00,45.9,19.0,29.74,NW,320,10.0,28.0,31,0.00,,,0.37,meteohub,2013-01-31 20:57:00,
2013-01-31 16:02:00,45.0,18.7,29.74,SW,230,19.0,28.0,31,0.00,,,0.37,meteohub,2013-01-31 21:02:00,
2013-01-31 16:07:00,44.8,18.3,29.74,SW,230,11.0,24.0,31,0.00,,,0.37,meteohub,2013-01-31 21:07:00,
2013-01-31 16:08:00,44.8,18.3,29.74,SW,230,7.0,24.0,31,0.00,,,0.37,meteohub,2013-01-31 21:08:00,
2013-01-31 16:12:00,44.8,18.3,29.74,SW,230,11.0,24.0,31,0.00,,,0.37,meteohub,2013-01-31 21:12:00,
2013-01-31 16:13:00,44.8,18.3,29.74,West,274,9.0,24.0,31,0.00,,,0.37,meteohub,2013-01-31 21:13:00,
2013-01-31 16:14:00,44.6,18.3,29.74,SW,230,11.0,24.0,31,0.00,,,0.37,meteohub,2013-01-31 21:14:00,
2013-01-31 16:17:00,44.2,18.1,29.77,West,274,18.0,24.0,31,0.00,,,0.37,meteohub,2013-01-31 21:17:00,
2013-01-31 16:18:00,44.2,18.1,29.77,WSW,252,17.0,24.0,31,0.00,,,0.37,meteohub,2013-01-31 21:18:00,
2013-01-31 16:19:00,44.1,18.0,29.77,West,274,12.0,24.0,31,0.00,,,0.37,meteohub,2013-01-31 21:19:00,
2013-01-31 16:23:00,44.1,17.8,29.77,SW,230,4.0,22.0,31,0.00,,,0.37,meteohub,2013-01-31 21:23:00,
2013-01-31 16:24:00,44.1,17.8,29.77,SW,230,13.0,22.0,31,0.00,,,0.37,meteohub,2013-01-31 21:24:00,
2013-01-31 16:28:00,44.1,17.8,29.77,WSW,252,8.0,22.0,31,0.00,,,0.37,meteohub,2013-01-31 21:28:00,
2013-01-31 16:29:00,43.9,17.8,29.77,WNW,297,4.0,22.0,31,0.00,,,0.37,meteohub,2013-01-31 21:29:00,
2013-01-31 16:30:00,43.9,17.8,29.77,West,274,17.0,22.0,31,0.00,,,0.37,meteohub,2013-01-31 21:30:00,
2013-01-31 16:33:00,43.9,17.8,29.77,WSW,252,10.0,22.0,31,0.00,,,0.37,meteohub,2013-01-31 21:33:00,
2013-01-31 16:34:00,43.9,17.8,29.77,WSW,252,19.0,22.0,31,0.00,,,0.37,meteohub,2013-01-31 21:34:00,
2013-01-31 16:36:00,43.9,17.6,29.77,West,274,11.0,22.0,31,0.00,,,0.37,meteohub,2013-01-31 21:36:00,
2013-01-31 16:38:00,43.7,17.6,29.77,WSW,252,7.0,22.0,31,0.00,,,0.37,meteohub,2013-01-31 21:38:00,
2013-01-31 16:39:00,43.7,17.6,29.77,SW,230,6.0,22.0,31,0.00,,,0.37,meteohub,2013-01-31 21:39:00,
2013-01-31 16:41:00,43.7,17.4,29.77,West,274,7.0,22.0,31,0.00,,,0.37,meteohub,2013-01-31 21:41:00,
2013-01-31 16:43:00,43.7,17.4,29.77,WSW,252,6.0,22.0,31,0.00,,,0.37,meteohub,2013-01-31 21:43:00,
2013-01-31 16:44:00,43.7,17.4,29.77,West,274,13.0,22.0,31,0.00,,,0.37,meteohub,2013-01-31 21:44:00,
2013-01-31 16:45:00,43.9,17.4,29.77,WSW,252,10.0,22.0,31,0.00,,,0.37,meteohub,2013-01-31 21:45:00,
2013-01-31 16:46:00,43.7,18.0,29.77,SW,230,16.0,22.0,32,0.00,,,0.37,meteohub,2013-01-31 21:46:00,
2013-01-31 16:49:00,43.7,18.0,29.77,NW,320,4.0,22.0,32,0.00,,,0.37,meteohub,2013-01-31 21:49:00,
2013-01-31 16:50:00,43.5,18.0,29.77,West,274,11.0,22.0,32,0.00,,,0.37,meteohub,2013-01-31 21:50:00,
2013-01-31 16:51:00,43.5,18.0,29.77,WSW,252,6.0,21.0,32,0.00,,,0.37,meteohub,2013-01-31 21:51:00,
2013-01-31 16:54:00,43.5,18.0,29.77,SW,230,13.0,21.0,32,0.00,,,0.37,meteohub,2013-01-31 21:54:00,
2013-01-31 16:55:00,43.5,18.0,29.77,SW,230,13.0,21.0,32,0.00,,,0.37,meteohub,2013-01-31 21:55:00,
2013-01-31 16:56:00,43.5,18.0,29.77,West,274,13.0,16.0,32,0.00,,,0.37,meteohub,2013-01-31 21:56:00,
2013-01-31 16:59:00,43.3,18.0,29.77,WSW,252,16.0,16.0,32,0.00,,,0.37,meteohub,2013-01-31 21:59:00,
2013-01-31 17:00:00,43.3,18.0,29.77,WSW,252,11.0,16.0,32,0.00,,,0.37,meteohub,2013-01-31 22:00:00,
2013-01-31 17:01:00,43.3,18.0,29.77,NW,320,6.0,21.0,32,0.00,,,0.37,meteohub,2013-01-31 22:01:00,
2013-01-31 17:02:00,43.2,17.8,29.77,SSW,207,13.0,21.0,32,0.00,,,0.37,meteohub,2013-01-31 22:02:00,
2013-01-31 17:04:00,43.0,17.6,29.77,WSW,252,15.0,21.0,32,0.00,,,0.37,meteohub,2013-01-31 22:04:00,
2013-01-31 17:05:00,43.0,17.6,29.77,SW,230,7.0,21.0,32,0.00,,,0.37,meteohub,2013-01-31 22:05:00,
2013-01-31 17:06:00,43.0,17.6,29.77,West,274,6.0,21.0,32,0.00,,,0.37,meteohub,2013-01-31 22:06:00,
2013-01-31 17:07:00,43.0,17.6,29.77,West,274,13.0,21.0,32,0.00,,,0.37,meteohub,2013-01-31 22:07:00,
2013-01-31 17:09:00,42.8,17.6,29.77,SSW,207,13.0,21.0,32,0.00,,,0.37,meteohub,2013-01-31 22:09:00,
2013-01-31 17:11:00,42.6,17.4,29.77,NW,320,12.0,21.0,32,0.00,,,0.37,meteohub,2013-01-31 22:11:00,
2013-01-31 17:12:00,42.6,17.4,29.77,NW,320,17.0,21.0,32,0.00,,,0.37,meteohub,2013-01-31 22:12:00,
2013-01-31 17:15:00,42.6,17.4,29.77,SW,230,4.0,21.0,32,0.00,,,0.37,meteohub,2013-01-31 22:15:00,
2013-01-31 17:16:00,42.6,17.4,29.77,South,184,6.0,18.0,32,0.00,,,0.37,meteohub,2013-01-31 22:16:00,
2013-01-31 17:17:00,42.4,17.4,29.80,West,274,11.0,18.0,32,0.00,,,0.37,meteohub,2013-01-31 22:17:00,
2013-01-31 17:20:00,42.4,17.4,29.80,West,274,6.0,18.0,32,0.00,,,0.37,meteohub,2013-01-31 22:20:00,
2013-01-31 17:21:00,42.4,17.4,29.80,WSW,252,6.0,18.0,32,0.00,,,0.37,meteohub,2013-01-31 22:21:00,
2013-01-31 17:23:00,42.4,17.4,29.80,SSW,207,3.0,18.0,32,0.00,,,0.37,meteohub,2013-01-31 22:23:00,
2013-01-31 17:25:00,42.4,17.4,29.80,SW,230,13.0,17.0,32,0.00,,,0.37,meteohub,2013-01-31 22:25:00,
2013-01-31 17:26:00,42.4,17.4,29.80,SW,230,6.0,17.0,32,0.00,,,0.37,meteohub,2013-01-31 22:26:00,
2013-01-31 17:28:00,42.3,17.2,29.80,SSW,207,5.0,17.0,32,0.00,,,0.37,meteohub,2013-01-31 22:28:00,
2013-01-31 17:31:00,42.3,18.0,29.80,NW,320,9.0,20.0,33,0.00,,,0.37,meteohub,2013-01-31 22:31:00,
2013-01-31 17:32:00,42.3,17.2,29.80,SW,230,9.0,20.0,32,0.00,,,0.37,meteohub,2013-01-31 22:32:00,
2013-01-31 17:34:00,42.1,17.1,29.80,SW,230,7.0,20.0,32,0.00,,,0.37,meteohub,2013-01-31 22:34:00,
2013-01-31 17:36:00,42.1,17.8,29.80,NW,320,5.0,20.0,33,0.00,,,0.37,meteohub,2013-01-31 22:36:00,
2013-01-31 17:37:00,42.1,18.0,29.80,SW,230,6.0,20.0,33,0.00,,,0.37,meteohub,2013-01-31 22:37:00,
2013-01-31 17:40:00,42.1,18.0,29.80,SW,230,6.0,17.0,33,0.00,,,0.37,meteohub,2013-01-31 22:40:00,
2013-01-31 17:41:00,42.1,18.0,29.80,WSW,252,6.0,17.0,33,0.00,,,0.37,meteohub,2013-01-31 22:41:00,
2013-01-31 17:42:00,41.9,17.8,29.80,West,274,9.0,17.0,33,0.00,,,0.37,meteohub,2013-01-31 22:42:00,
2013-01-31 17:45:00,42.1,18.0,29.80,West,274,6.0,17.0,33,0.00,,,0.37,meteohub,2013-01-31 22:45:00,
2013-01-31 17:47:00,42.1,18.0,29.80,SSW,207,6.0,17.0,33,0.00,,,0.37,meteohub,2013-01-31 22:47:00,
2013-01-31 17:50:00,41.9,17.8,29.80,NW,320,8.0,12.0,33,0.00,,,0.37,meteohub,2013-01-31 22:50:00,
2013-01-31 17:52:00,41.9,17.8,29.80,SW,230,4.0,12.0,33,0.00,,,0.37,meteohub,2013-01-31 22:52:00,
2013-01-31 17:53:00,41.9,17.8,29.80,SW,230,4.0,12.0,33,0.00,,,0.37,meteohub,2013-01-31 22:53:00,
2013-01-31 17:55:00,41.9,17.8,29.80,WSW,252,2.0,10.0,33,0.00,,,0.37,meteohub,2013-01-31 22:55:00,
2013-01-31 17:57:00,41.9,17.8,29.80,SW,230,4.0,10.0,33,0.00,,,0.37,meteohub,2013-01-31 22:57:00,
2013-01-31 17:58:00,41.9,17.8,29.80,SW,230,6.0,10.0,33,0.00,,,0.37,meteohub,2013-01-31 22:58:00,
2013-01-31 18:01:00,41.9,17.6,29.80,WSW,252,7.0,12.0,33,0.00,,,0.37,meteohub,2013-01-31 23:01:00,
2013-01-31 18:02:00,41.9,17.6,29.83,WSW,252,8.0,12.0,33,0.00,,,0.37,meteohub,2013-01-31 23:02:00,
2013-01-31 18:03:00,41.9,17.6,29.83,WSW,252,8.0,12.0,33,0.00,,,0.37,meteohub,2013-01-31 23:03:00,
2013-01-31 18:06:00,41.9,17.6,29.83,SSW,207,4.0,14.0,33,0.00,,,0.37,meteohub,2013-01-31 23:06:00,
2013-01-31 18:08:00,41.9,17.6,29.83,South,184,4.0,14.0,33,0.00,,,0.37,meteohub,2013-01-31 23:08:00,
2013-01-31 18:11:00,41.9,17.6,29.83,SW,230,6.0,14.0,33,0.00,,,0.37,meteohub,2013-01-31 23:11:00,
2013-01-31 18:13:00,41.9,18.3,29.83,SW,230,6.0,14.0,34,0.00,,,0.37,meteohub,2013-01-31 23:13:00,
2013-01-31 18:17:00,42.1,18.5,29.83,NW,320,6.0,15.0,34,0.00,,,0.37,meteohub,2013-01-31 23:17:00,
2013-01-31 18:18:00,42.1,18.5,29.83,WSW,252,5.0,15.0,34,0.00,,,0.37,meteohub,2013-01-31 23:18:00,
2013-01-31 18:19:00,41.9,18.5,29.83,SW,230,7.0,15.0,34,0.00,,,0.37,meteohub,2013-01-31 23:19:00,
2013-01-31 18:22:00,41.9,18.3,29.83,SW,230,3.0,15.0,34,0.00,,,0.37,meteohub,2013-01-31 23:22:00,
2013-01-31 18:23:00,41.9,18.3,29.83,NW,320,8.0,15.0,34,0.00,,,0.37,meteohub,2013-01-31 23:23:00,
2013-01-31 18:24:00,41.9,18.3,29.83,West,274,12.0,15.0,34,0.00,,,0.37,meteohub,2013-01-31 23:24:00,
2013-01-31 18:28:00,41.9,18.3,29.83,SW,230,6.0,15.0,34,0.00,,,0.37,meteohub,2013-01-31 23:28:00,
2013-01-31 18:29:00,41.9,18.3,29.83,NW,320,5.0,15.0,34,0.00,,,0.37,meteohub,2013-01-31 23:29:00,
2013-01-31 18:33:00,41.9,18.3,29.83,WNW,297,6.0,12.0,34,0.00,,,0.37,meteohub,2013-01-31 23:33:00,
2013-01-31 18:34:00,41.7,18.3,29.83,West,274,7.0,12.0,34,0.00,,,0.37,meteohub,2013-01-31 23:34:00,
2013-01-31 18:38:00,41.7,18.1,29.83,West,274,4.0,12.0,34,0.00,,,0.37,meteohub,2013-01-31 23:38:00,
2013-01-31 18:39:00,41.7,18.1,29.83,WNW,297,9.0,12.0,34,0.00,,,0.37,meteohub,2013-01-31 23:39:00,
2013-01-31 18:40:00,41.7,18.1,29.83,NW,320,10.0,12.0,34,0.00,,,0.37,meteohub,2013-01-31 23:40:00,
2013-01-31 18:43:00,41.5,18.0,29.83,WSW,252,5.0,13.0,34,0.00,,,0.37,meteohub,2013-01-31 23:43:00,
2013-01-31 18:44:00,41.5,18.0,29.83,West,274,4.0,13.0,34,0.00,,,0.37,meteohub,2013-01-31 23:44:00,
2013-01-31 18:45:00,41.5,18.0,29.83,NW,320,9.0,13.0,34,0.00,,,0.37,meteohub,2013-01-31 23:45:00,
2013-01-31 18:46:00,41.5,18.0,29.83,WNW,297,10.0,13.0,34,0.00,,,0.37,meteohub,2013-01-31 23:46:00,
2013-01-31 18:49:00,41.4,17.8,29.86,SW,230,8.0,13.0,34,0.00,,,0.37,meteohub,2013-01-31 23:49:00,
2013-01-31 18:50:00,41.2,17.6,29.86,West,274,4.0,13.0,34,0.00,,,0.37,meteohub,2013-01-31 23:50:00,
2013-01-31 18:51:00,41.2,17.6,29.86,SW,230,2.0,13.0,34,0.00,,,0.37,meteohub,2013-01-31 23:51:00,
2013-01-31 18:54:00,41.0,17.6,29.86,NNW,342,4.0,13.0,34,0.00,,,0.37,meteohub,2013-01-31 23:54:00,
2013-01-31 18:55:00,41.0,17.6,29.86,NNW,342,4.0,13.0,34,0.00,,,0.37,meteohub,2013-01-31 23:55:00,
2013-01-31 18:56:00,41.0,17.4,29.86,NNW,342,6.0,15.0,34,0.00,,,0.37,meteohub,2013-01-31 23:56:00,
2013-01-31 19:00:00,40.6,17.4,29.86,West,274,6.0,15.0,34,0.00,,,0.37,meteohub,2013-02-01 00:00:00,
2013-01-31 19:01:00,40.5,17.2,29.86,WSW,252,6.0,15.0,34,0.00,,,0.37,meteohub,2013-02-01 00:01:00,
2013-01-31 19:05:00,40.1,17.6,29.86,West,274,6.0,15.0,35,0.00,,,0.37,meteohub,2013-02-01 00:05:00,
2013-01-31 19:06:00,40.1,17.6,29.86,NW,320,6.0,18.0,35,0.00,,,0.37,meteohub,2013-02-01 00:06:00,
2013-01-31 19:07:00,40.1,17.6,29.86,NW,320,6.0,18.0,35,0.00,,,0.37,meteohub,2013-02-01 00:07:00,
2013-01-31 19:10:00,39.9,17.6,29.86,WNW,297,14.0,18.0,35,0.00,,,0.37,meteohub,2013-02-01 00:10:00,
2013-01-31 19:11:00,39.9,17.6,29.86,SW,230,14.0,18.0,35,0.00,,,0.37,meteohub,2013-02-01 00:11:00,
2013-01-31 19:12:00,39.7,17.4,29.86,West,274,12.0,18.0,35,0.00,,,0.37,meteohub,2013-02-01 00:12:00,
2013-01-31 19:15:00,39.6,17.1,29.86,West,274,6.0,18.0,35,0.00,,,0.37,meteohub,2013-02-01 00:15:00,
2013-01-31 19:16:00,39.4,17.1,29.86,NW,320,9.0,18.0,35,0.00,,,0.37,meteohub,2013-02-01 00:16:00,
2013-01-31 19:17:00,39.4,17.1,29.89,West,274,10.0,18.0,35,0.00,,,0.37,meteohub,2013-02-01 00:17:00,
2013-01-31 19:21:00,39.2,17.6,29.89,NNW,342,2.0,17.0,36,0.00,,,0.37,meteohub,2013-02-01 00:21:00,
2013-01-31 19:22:00,39.2,17.6,29.89,WSW,252,8.0,17.0,36,0.00,,,0.37,meteohub,2013-02-01 00:22:00,
2013-01-31 19:23:00,39.2,17.6,29.89,North,4,6.0,17.0,36,0.00,,,0.37,meteohub,2013-02-01 00:23:00,
2013-01-31 19:26:00,39.0,17.2,29.89,SW,230,8.0,17.0,36,0.00,,,0.37,meteohub,2013-02-01 00:26:00,
2013-01-31 19:27:00,39.0,17.2,29.89,NNW,342,10.0,17.0,36,0.00,,,0.37,meteohub,2013-02-01 00:27:00,
2013-01-31 19:28:00,39.0,17.2,29.89,South,184,8.0,17.0,36,0.00,,,0.37,meteohub,2013-02-01 00:28:00,
2013-01-31 19:32:00,38.8,17.1,29.89,NW,320,10.0,16.0,36,0.00,,,0.37,meteohub,2013-02-01 00:32:00,
2013-01-31 19:33:00,38.8,17.1,29.89,WNW,297,11.0,16.0,36,0.00,,,0.37,meteohub,2013-02-01 00:33:00,
2013-01-31 19:37:00,38.7,16.9,29.89,NW,320,7.0,16.0,36,0.00,,,0.37,meteohub,2013-02-01 00:37:00,
2013-01-31 19:38:00,38.7,16.9,29.89,NW,320,10.0,16.0,36,0.00,,,0.37,meteohub,2013-02-01 00:38:00,
2013-01-31 19:42:00,38.5,16.7,29.89,SW,230,10.0,16.0,36,0.00,,,0.37,meteohub,2013-02-01 00:42:00,
2013-01-31 19:43:00,38.5,16.7,29.89,NE,50,13.0,16.0,36,0.00,,,0.37,meteohub,2013-02-01 00:43:00,
2013-01-31 19:47:00,38.3,16.0,29.89,West,274,6.0,13.0,35,0.00,,,0.37,meteohub,2013-02-01 00:47:00,
2013-01-31 19:49:00,38.3,16.0,29.89,NW,320,11.0,13.0,35,0.00,,,0.37,meteohub,2013-02-01 00:49:00,
2013-01-31 19:53:00,38.1,16.3,29.89,West,274,8.0,14.0,36,0.00,,,0.37,meteohub,2013-02-01 00:53:00,
2013-01-31 19:54:00,38.1,16.3,29.89,North,4,12.0,14.0,36,0.00,,,0.37,meteohub,2013-02-01 00:54:00,
2013-01-31 19:55:00,38.1,16.3,29.89,ENE,72,4.0,14.0,36,0.00,,,0.37,meteohub,2013-02-01 00:55:00,
2013-01-31 19:59:00,37.9,15.6,29.89,West,274,5.0,14.0,35,0.00,,,0.37,meteohub,2013-02-01 00:59:00,
2013-01-31 20:00:00,37.9,15.6,29.89,WNW,297,6.0,14.0,35,0.00,,,0.37,meteohub,2013-02-01 01:00:00,
2013-01-31 20:04:00,37.8,15.4,29.89,NW,320,7.0,15.0,35,0.00,,,0.37,meteohub,2013-02-01 01:04:00,
2013-01-31 20:05:00,37.8,15.4,29.89,West,274,9.0,15.0,35,0.00,,,0.37,meteohub,2013-02-01 01:05:00,
2013-01-31 20:06:00,37.8,15.4,29.89,West,274,13.0,15.0,35,0.00,,,0.37,meteohub,2013-02-01 01:06:00,
2013-01-31 20:09:00,37.6,15.3,29.89,NW,320,9.0,15.0,35,0.00,,,0.37,meteohub,2013-02-01 01:09:00,
2013-01-31 20:11:00,37.6,15.3,29.89,South,184,10.0,15.0,35,0.00,,,0.37,meteohub,2013-02-01 01:11:00,
2013-01-31 20:12:00,37.6,15.1,29.89,NW,320,4.0,15.0,35,0.00,,,0.37,meteohub,2013-02-01 01:12:00,
2013-01-31 20:14:00,37.6,15.1,29.89,NE,50,4.0,15.0,35,0.00,,,0.37,meteohub,2013-02-01 01:14:00,
2013-01-31 20:16:00,37.6,15.1,29.89,SW,230,8.0,15.0,35,0.00,,,0.37,meteohub,2013-02-01 01:16:00,
2013-01-31 20:17:00,37.4,15.1,29.89,North,4,6.0,15.0,35,0.00,,,0.37,meteohub,2013-02-01 01:17:00,
2013-01-31 20:20:00,37.4,15.1,29.89,West,274,9.0,15.0,35,0.00,,,0.37,meteohub,2013-02-01 01:20:00,
2013-01-31 20:21:00,37.4,14.9,29.89,West,274,8.0,15.0,35,0.00,,,0.37,meteohub,2013-02-01 01:21:00,
2013-01-31 20:22:00,37.4,14.9,29.89,North,4,6.0,15.0,35,0.00,,,0.37,meteohub,2013-02-01 01:22:00,
2013-01-31 20:25:00,37.2,14.9,29.89,West,274,7.0,13.0,35,0.00,,,0.37,meteohub,2013-02-01 01:25:00,
2013-01-31 20:26:00,37.2,14.9,29.89,SW,230,10.0,13.0,35,0.00,,,0.37,meteohub,2013-02-01 01:26:00,
2013-01-31 20:27:00,37.2,14.9,29.89,West,274,4.0,13.0,35,0.00,,,0.37,meteohub,2013-02-01 01:27:00,
2013-01-31 20:30:00,37.0,14.7,29.89,West,274,6.0,13.0,35,0.00,,,0.37,meteohub,2013-02-01 01:30:00,
2013-01-31 20:31:00,37.0,14.7,29.89,West,274,4.0,13.0,35,0.00,,,0.37,meteohub,2013-02-01 01:31:00,
2013-01-31 20:32:00,37.0,14.7,29.89,North,4,2.0,13.0,35,0.00,,,0.37,meteohub,2013-02-01 01:32:00,
2013-01-31 20:33:00,37.0,14.7,29.89,WNW,297,1.0,13.0,35,0.00,,,0.37,meteohub,2013-02-01 01:33:00,
2013-01-31 20:35:00,37.0,14.7,29.89,NW,320,8.0,13.0,35,0.00,,,0.37,meteohub,2013-02-01 01:35:00,
2013-01-31 20:36:00,37.0,14.2,29.89,SW,230,4.0,13.0,34,0.00,,,0.37,meteohub,2013-02-01 01:36:00,
2013-01-31 20:38:00,37.0,14.7,29.89,NW,320,6.0,13.0,35,0.00,,,0.37,meteohub,2013-02-01 01:38:00,
2013-01-31 20:41:00,37.0,14.2,29.89,SW,230,6.0,10.0,34,0.00,,,0.37,meteohub,2013-02-01 01:41:00,
2013-01-31 20:43:00,37.0,14.7,29.89,South,184,4.0,10.0,35,0.00,,,0.37,meteohub,2013-02-01 01:43:00,
2013-01-31 20:46:00,37.0,14.7,29.89,WSW,252,9.0,9.0,35,0.00,,,0.37,meteohub,2013-02-01 01:46:00,
2013-01-31 20:48:00,37.0,14.7,29.89,West,274,2.0,9.0,35,0.00,,,0.37,meteohub,2013-02-01 01:48:00,
2013-01-31 20:49:00,36.9,14.0,29.89,West,274,4.0,9.0,34,0.00,,,0.37,meteohub,2013-02-01 01:49:00,
2013-01-31 20:51:00,36.9,14.7,29.89,NW,320,5.0,10.0,35,0.00,,,0.37,meteohub,2013-02-01 01:51:00,
2013-01-31 20:53:00,36.9,14.7,29.89,South,184,4.0,10.0,35,0.00,,,0.37,meteohub,2013-02-01 01:53:00,
2013-01-31 20:54:00,36.9,14.7,29.89,North,4,2.0,10.0,35,0.00,,,0.37,meteohub,2013-02-01 01:54:00,
2013-01-31 20:57:00,36.7,14.5,29.89,WNW,297,3.0,10.0,35,0.00,,,0.37,meteohub,2013-02-01 01:57:00,
2013-01-31 20:58:00,36.7,14.5,29.89,West,274,1.0,10.0,35,0.00,,,0.37,meteohub,2013-02-01 01:58:00,
2013-01-31 21:00:00,36.7,14.5,29.89,NW,320,4.0,10.0,35,0.00,,,0.37,meteohub,2013-02-01 02:00:00,
2013-01-31 21:02:00,36.7,14.5,29.89,West,274,1.0,9.0,35,0.00,,,0.37,meteohub,2013-02-01 02:02:00,
2013-01-31 21:04:00,36.5,14.5,29.89,NW,320,10.0,10.0,35,0.00,,,0.37,meteohub,2013-02-01 02:04:00,
2013-01-31 21:05:00,36.7,14.5,29.89,West,274,4.0,9.0,35,0.00,,,0.37,meteohub,2013-02-01 02:05:00,
2013-01-31 21:07:00,36.5,13.6,29.89,West,274,3.0,10.0,34,0.00,,,0.37,meteohub,2013-02-01 02:07:00,
2013-01-31 21:10:00,36.5,13.6,29.89,NW,320,2.0,10.0,34,0.00,,,0.37,meteohub,2013-02-01 02:10:00,
2013-01-31 21:12:00,36.5,13.6,29.89,West,274,2.0,10.0,34,0.00,,,0.37,meteohub,2013-02-01 02:12:00,
2013-01-31 21:15:00,36.3,13.6,29.89,SW,230,3.0,10.0,34,0.00,,,0.37,meteohub,2013-02-01 02:15:00,
2013-01-31 21:17:00,36.3,13.5,29.89,West,274,4.0,10.0,34,0.00,,,0.37,meteohub,2013-02-01 02:17:00,
2013-01-31 21:20:00,36.3,13.5,29.89,WNW,297,5.0,10.0,34,0.00,,,0.37,meteohub,2013-02-01 02:20:00,
2013-01-31 21:22:00,36.1,13.3,29.89,NW,320,6.0,6.0,34,0.00,,,0.37,meteohub,2013-02-01 02:22:00,
2013-01-31 21:23:00,36.1,13.3,29.89,NW,320,6.0,6.0,34,0.00,,,0.37,meteohub,2013-02-01 02:23:00,
2013-01-31 21:25:00,36.1,13.3,29.89,NW,320,3.0,6.0,34,0.00,,,0.37,meteohub,2013-02-01 02:25:00,
2013-01-31 21:27:00,36.1,13.3,29.89,West,274,4.0,6.0,34,0.00,,,0.37,meteohub,2013-02-01 02:27:00,
2013-01-31 21:28:00,36.1,13.3,29.89,NW,320,7.0,7.0,34,0.00,,,0.37,meteohub,2013-02-01 02:28:00,
2013-01-31 21:30:00,36.3,13.3,29.89,WSW,252,5.0,7.0,34,0.00,,,0.37,meteohub,2013-02-01 02:30:00,
2013-01-31 21:31:00,36.3,13.3,29.89,WSW,252,6.0,7.0,34,0.00,,,0.37,meteohub,2013-02-01 02:31:00,
2013-01-31 21:33:00,36.1,13.1,29.89,North,4,3.0,7.0,34,0.00,,,0.37,meteohub,2013-02-01 02:33:00,
2013-01-31 21:36:00,36.1,13.1,29.89,West,274,6.0,10.0,34,0.00,,,0.37,meteohub,2013-02-01 02:36:00,
2013-01-31 21:38:00,36.1,13.1,29.89,SW,230,3.0,10.0,34,0.00,,,0.37,meteohub,2013-02-01 02:38:00,
2013-01-31 21:40:00,36.1,13.8,29.89,West,274,6.0,10.0,35,0.00,,,0.37,meteohub,2013-02-01 02:40:00,
2013-01-31 21:41:00,36.1,13.8,29.89,SW,230,5.0,10.0,35,0.00,,,0.37,meteohub,2013-02-01 02:41:00,
2013-01-31 21:43:00,36.1,13.8,29.89,NNW,342,8.0,10.0,35,0.00,,,0.37,meteohub,2013-02-01 02:43:00,
2013-01-31 21:44:00,36.1,13.1,29.89,SW,230,3.0,10.0,34,0.00,,,0.37,meteohub,2013-02-01 02:44:00,
2013-01-31 21:46:00,36.1,13.8,29.89,West,274,6.0,10.0,35,0.00,,,0.37,meteohub,2013-02-01 02:46:00,
2013-01-31 21:48:00,36.1,13.8,29.89,WSW,252,4.0,10.0,35,0.00,,,0.37,meteohub,2013-02-01 02:48:00,
2013-01-31 21:49:00,36.1,13.8,29.89,West,274,5.0,10.0,35,0.00,,,0.37,meteohub,2013-02-01 02:49:00,
2013-01-31 21:51:00,36.1,13.8,29.89,West,274,6.0,10.0,35,0.00,,,0.37,meteohub,2013-02-01 02:51:00,
2013-01-31 21:54:00,36.1,13.8,29.89,West,274,7.0,10.0,35,0.00,,,0.37,meteohub,2013-02-01 02:54:00,
2013-01-31 21:56:00,36.0,13.6,29.89,WSW,252,3.0,10.0,35,0.00,,,0.37,meteohub,2013-02-01 02:56:00,
2013-01-31 21:57:00,36.0,13.6,29.89,NW,320,3.0,10.0,35,0.00,,,0.37,meteohub,2013-02-01 02:57:00,
2013-01-31 21:59:00,36.0,13.6,29.89,West,274,4.0,10.0,35,0.00,,,0.37,meteohub,2013-02-01 02:59:00,
2013-01-31 22:01:00,36.0,13.6,29.89,NW,320,4.0,9.0,35,0.00,,,0.37,meteohub,2013-02-01 03:01:00,
2013-01-31 22:02:00,36.0,13.6,29.89,West,274,3.0,9.0,35,0.00,,,0.37,meteohub,2013-02-01 03:02:00,
2013-01-31 22:04:00,35.8,13.6,29.89,NW,320,1.0,9.0,35,0.00,,,0.37,meteohub,2013-02-01 03:04:00,
2013-01-31 22:05:00,35.8,13.6,29.89,SSW,207,4.0,9.0,35,0.00,,,0.37,meteohub,2013-02-01 03:05:00,
2013-01-31 22:07:00,35.8,13.6,29.89,NW,320,6.0,9.0,35,0.00,,,0.37,meteohub,2013-02-01 03:07:00,
2013-01-31 22:09:00,35.8,13.6,29.89,NNE,27,2.0,9.0,35,0.00,,,0.37,meteohub,2013-02-01 03:09:00,
2013-01-31 22:10:00,36.0,13.6,29.89,West,274,3.0,8.0,35,0.00,,,0.37,meteohub,2013-02-01 03:10:00,
2013-01-31 22:12:00,35.8,13.5,29.89,NW,320,2.0,8.0,35,0.00,,,0.37,meteohub,2013-02-01 03:12:00,
2013-01-31 22:15:00,35.8,13.5,29.89,NW,320,2.0,6.0,35,0.00,,,0.37,meteohub,2013-02-01 03:15:00,
2013-01-31 22:17:00,35.8,13.5,29.92,NW,320,2.0,6.0,35,0.00,,,0.37,meteohub,2013-02-01 03:17:00,
2013-01-31 22:20:00,35.8,13.5,29.92,SSW,207,2.0,6.0,35,0.00,,,0.37,meteohub,2013-02-01 03:20:00,
2013-01-31 22:22:00,35.6,13.3,29.92,NW,320,4.0,6.0,35,0.00,,,0.37,meteohub,2013-02-01 03:22:00,
2013-01-31 22:25:00,35.6,13.3,29.92,West,274,4.0,6.0,35,0.00,,,0.37,meteohub,2013-02-01 03:25:00,
2013-01-31 22:26:00,35.6,13.3,29.92,West,274,4.0,6.0,35,0.00,,,0.37,meteohub,2013-02-01 03:26:00,
2013-01-31 22:27:00,35.8,14.2,29.92,NW,320,4.0,6.0,36,0.00,,,0.37,meteohub,2013-02-01 03:27:00,
2013-01-31 22:29:00,35.8,14.2,29.92,NW,320,5.0,6.0,36,0.00,,,0.37,meteohub,2013-02-01 03:29:00,
2013-01-31 22:30:00,35.8,14.2,29.92,West,274,3.0,8.0,36,0.00,,,0.37,meteohub,2013-02-01 03:30:00,
2013-01-31 22:31:00,35.8,14.2,29.92,West,274,2.0,8.0,36,0.00,,,0.37,meteohub,2013-02-01 03:31:00,
2013-01-31 22:33:00,35.8,14.2,29.92,West,274,3.0,8.0,36,0.00,,,0.37,meteohub,2013-02-01 03:33:00,
2013-01-31 22:34:00,35.6,14.0,29.92,West,274,3.0,8.0,36,0.00,,,0.37,meteohub,2013-02-01 03:34:00,
2013-01-31 22:35:00,35.6,14.0,29.92,SW,230,3.0,8.0,36,0.00,,,0.37,meteohub,2013-02-01 03:35:00,
2013-01-31 22:36:00,35.6,14.0,29.92,SW,230,2.0,8.0,36,0.00,,,0.37,meteohub,2013-02-01 03:36:00,
2013-01-31 22:38:00,35.8,14.2,29.92,NNW,342,2.0,8.0,36,0.00,,,0.37,meteohub,2013-02-01 03:38:00,
2013-01-31 22:39:00,35.6,14.0,29.92,West,274,3.0,8.0,36,0.00,,,0.37,meteohub,2013-02-01 03:39:00,
2013-01-31 22:41:00,35.6,14.0,29.92,SW,230,3.0,8.0,36,0.00,,,0.37,meteohub,2013-02-01 03:41:00,
2013-01-31 22:43:00,35.6,14.0,29.92,West,274,4.0,8.0,36,0.00,,,0.37,meteohub,2013-02-01 03:43:00,
2013-01-31 22:44:00,35.6,14.0,29.92,SW,230,3.0,8.0,36,0.00,,,0.37,meteohub,2013-02-01 03:44:00,
2013-01-31 22:46:00,35.6,14.0,29.92,SW,230,5.0,6.0,36,0.00,,,0.37,meteohub,2013-02-01 03:46:00,
2013-01-31 22:48:00,35.6,14.0,29.92,SW,230,4.0,6.0,36,0.00,,,0.37,meteohub,2013-02-01 03:48:00,
2013-01-31 22:49:00,35.6,14.0,29.92,SW,230,3.0,6.0,36,0.00,,,0.37,meteohub,2013-02-01 03:49:00,
2013-01-31 22:51:00,35.6,14.0,29.92,WSW,252,3.0,6.0,36,0.00,,,0.37,meteohub,2013-02-01 03:51:00,
2013-01-31 22:53:00,35.6,14.0,29.92,SW,230,4.0,6.0,36,0.00,,,0.37,meteohub,2013-02-01 03:53:00,
2013-01-31 22:56:00,35.6,14.0,29.92,SW,230,4.0,6.0,36,0.00,,,0.37,meteohub,2013-02-01 03:56:00,
2013-01-31 22:57:00,35.6,14.0,29.92,West,274,4.0,6.0,36,0.00,,,0.37,meteohub,2013-02-01 03:57:00,
2013-01-31 22:58:00,35.6,14.0,29.92,WSW,252,4.0,6.0,36,0.00,,,0.37,meteohub,2013-02-01 03:58:00,
2013-01-31 23:01:00,35.6,13.8,29.92,South,184,2.0,6.0,36,0.00,,,0.37,meteohub,2013-02-01 04:01:00,
2013-01-31 23:02:00,35.4,13.8,29.92,SW,230,3.0,6.0,36,0.00,,,0.37,meteohub,2013-02-01 04:02:00,
2013-01-31 23:04:00,35.4,13.8,29.92,West,274,2.0,6.0,36,0.00,,,0.37,meteohub,2013-02-01 04:04:00,
2013-01-31 23:06:00,35.4,13.8,29.92,WSW,252,2.0,6.0,36,0.00,,,0.37,meteohub,2013-02-01 04:06:00,
2013-01-31 23:08:00,35.4,13.8,29.92,West,274,1.0,6.0,36,0.00,,,0.37,meteohub,2013-02-01 04:08:00,
2013-01-31 23:09:00,35.2,13.8,29.92,West,274,1.0,6.0,36,0.00,,,0.37,meteohub,2013-02-01 04:09:00,
2013-01-31 23:11:00,35.2,13.8,29.92,SW,230,2.0,5.0,36,0.00,,,0.37,meteohub,2013-02-01 04:11:00,
2013-01-31 23:12:00,35.2,13.8,29.92,WNW,297,0.0,5.0,36,0.00,,,0.37,meteohub,2013-02-01 04:12:00,
2013-01-31 23:14:00,35.2,13.8,29.92,SW,230,3.0,5.0,36,0.00,,,0.37,meteohub,2013-02-01 04:14:00,
2013-01-31 23:17:00,35.2,13.6,29.92,SW,230,4.0,4.0,36,0.00,,,0.37,meteohub,2013-02-01 04:17:00,
2013-01-31 23:19:00,35.2,13.6,29.92,West,274,3.0,4.0,36,0.00,,,0.37,meteohub,2013-02-01 04:19:00,
2013-01-31 23:22:00,35.2,13.6,29.92,West,274,3.0,4.0,36,0.00,,,0.37,meteohub,2013-02-01 04:22:00,
2013-01-31 23:24:00,35.2,13.6,29.92,SW,230,4.0,4.0,36,0.00,,,0.37,meteohub,2013-02-01 04:24:00,
2013-01-31 23:25:00,35.2,13.6,29.92,SW,230,3.0,4.0,36,0.00,,,0.37,meteohub,2013-02-01 04:25:00,
2013-01-31 23:27:00,35.2,13.6,29.92,South,184,2.0,4.0,36,0.00,,,0.37,meteohub,2013-02-01 04:27:00,
2013-01-31 23:29:00,35.2,13.5,29.92,SSW,207,3.0,4.0,36,0.00,,,0.37,meteohub,2013-02-01 04:29:00,
2013-01-31 23:30:00,35.2,13.5,29.92,SSW,207,4.0,4.0,36,0.00,,,0.37,meteohub,2013-02-01 04:30:00,
2013-01-31 23:32:00,35.2,14.2,29.92,SW,230,4.0,4.0,37,0.00,,,0.37,meteohub,2013-02-01 04:32:00,
2013-01-31 23:34:00,35.1,13.5,29.92,SSW,207,3.0,4.0,36,0.00,,,0.37,meteohub,2013-02-01 04:34:00,
2013-01-31 23:35:00,35.1,13.3,29.92,SSW,207,2.0,4.0,36,0.00,,,0.37,meteohub,2013-02-01 04:35:00,
2013-01-31 23:37:00,35.1,14.0,29.92,South,184,3.0,4.0,37,0.00,,,0.37,meteohub,2013-02-01 04:37:00,
2013-01-31 23:39:00,35.1,14.0,29.92,South,184,3.0,4.0,37,0.00,,,0.37,meteohub,2013-02-01 04:39:00,
2013-01-31 23:40:00,35.1,14.0,29.92,SW,230,3.0,4.0,37,0.00,,,0.37,meteohub,2013-02-01 04:40:00,
2013-01-31 23:42:00,35.1,14.7,29.92,SW,230,4.0,4.0,38,0.00,,,0.37,meteohub,2013-02-01 04:42:00,
2013-01-31 23:44:00,35.1,14.7,29.92,SSW,207,4.0,4.0,38,0.00,,,0.37,meteohub,2013-02-01 04:44:00,
2013-01-31 23:45:00,35.1,14.7,29.92,South,184,4.0,4.0,38,0.00,,,0.37,meteohub,2013-02-01 04:45:00,
2013-01-31 23:46:00,35.1,14.7,29.92,SW,230,4.0,4.0,38,0.00,,,0.37,meteohub,2013-02-01 04:46:00,
2013-01-31 23:48:00,35.1,14.5,29.92,SW,230,4.0,4.0,38,0.00,,,0.37,meteohub,2013-02-01 04:48:00,
2013-01-31 23:49:00,35.1,14.0,29.92,SW,230,4.0,4.0,37,0.00,,,0.37,meteohub,2013-02-01 04:49:00,
2013-01-31 23:50:00,35.1,14.0,29.92,SW,230,3.0,5.0,37,0.00,,,0.37,meteohub,2013-02-01 04:50:00,
2013-01-31 23:51:00,35.1,14.0,29.92,WSW,252,2.0,5.0,37,0.00,,,0.37,meteohub,2013-02-01 04:51:00,
2013-01-31 23:53:00,35.1,14.0,29.92,SSW,207,3.0,5.0,37,0.00,,,0.37,meteohub,2013-02-01 04:53:00,
2013-01-31 23:54:00,35.1,14.0,29.92,South,184,3.0,5.0,37,0.00,,,0.37,meteohub,2013-02-01 04:54:00,
2013-01-31 23:55:00,35.1,14.0,29.92,South,184,3.0,5.0,37,0.00,,,0.37,meteohub,2013-02-01 04:55:00,
2013-01-31 23:56:00,35.1,14.0,29.92,South,184,4.0,5.0,37,0.00,,,0.37,meteohub,2013-02-01 04:56:00,
2013-01-31 23:58:00,35.1,14.0,29.92,South,184,3.0,5.0,37,0.00,,,0.37,meteohub,2013-02-01 04:58:00,